Time,TemperatureF,DewpointF,PressureIn,WindDirection,WindDirectionDegrees,WindSpeedMPH,WindSpeedGustMPH,Humidity,HourlyPrecipIn,Conditions,Clouds,dailyrainin,SoftwareType,DateUTC
2013-02-22 00:00:00,37.4,15.2,30.23,SE,146,7.0,7.0,40,0.00,,,0.00,Wunderground v.1.15,2013-02-22 05:00:00,
2013-02-22 00:02:00,37.4,15.8,30.23,SE,134,4.0,7.0,41,0.00,,,0.00,Wunderground v.1.15,2013-02-22 05:02:00,
2013-02-22 00:07:00,37.3,15.7,30.23,SE,135,3.0,8.0,41,0.00,,,0.00,Wunderground v.1.15,2013-02-22 05:07:00,
2013-02-22 00:08:00,37.3,15.7,30.23,ESE,123,4.0,8.0,41,0.00,,,0.00,Wunderground v.1.15,2013-02-22 05:08:00,
2013-02-22 00:09:00,37.3,15.7,30.23,SSE,165,6.0,8.0,41,0.00,,,0.00,Wunderground v.1.15,2013-02-22 05:09:00,
2013-02-22 00:10:00,37.3,15.7,30.23,SSE,150,2.0,5.0,41,0.00,,,0.00,Wunderground v.1.15,2013-02-22 05:10:00,
2013-02-22 00:13:00,37.2,16.2,30.23,South,174,7.0,7.0,42,0.00,,,0.00,Wunderground v.1.15,2013-02-22 05:13:00,
2013-02-22 00:16:00,37.1,16.1,30.23,ENE,69,0.0,7.0,42,0.00,,,0.00,Wunderground v.1.15,2013-02-22 05:16:00,
2013-02-22 00:17:00,37.1,16.1,30.23,East,81,1.0,7.0,42,0.00,,,0.00,Wunderground v.1.15,2013-02-22 05:17:00,
2013-02-22 00:19:00,37.0,16.0,30.23,SSE,167,3.0,7.0,42,0.00,,,0.00,Wunderground v.1.15,2013-02-22 05:19:00,
2013-02-22 00:22:00,37.0,16.0,30.24,SSW,201,1.0,4.0,42,0.00,,,0.00,Wunderground v.1.15,2013-02-22 05:22:00,
2013-02-22 00:24:00,36.9,15.9,30.24,East,92,3.0,8.0,42,0.00,,,0.00,Wunderground v.1.15,2013-02-22 05:24:00,
2013-02-22 00:27:00,36.8,15.8,30.25,SE,146,7.0,8.0,42,0.00,,,0.00,Wunderground v.1.15,2013-02-22 05:27:00,
2013-02-22 00:29:00,36.8,15.8,30.25,NE,44,2.0,8.0,42,0.00,,,0.00,Wunderground v.1.15,2013-02-22 05:29:00,
2013-02-22 00:30:00,36.8,15.8,30.25,East,81,3.0,5.0,42,0.00,,,0.00,Wunderground v.1.15,2013-02-22 05:30:00,
2013-02-22 00:32:00,36.8,16.4,30.25,SE,140,6.0,6.0,43,0.00,,,0.00,Wunderground v.1.15,2013-02-22 05:32:00,
2013-02-22 00:33:00,36.7,15.0,30.25,East,80,2.0,14.0,42,0.00,,,0.00,weatherlink.com 1.10,2013-02-22 05:33:00,
2013-02-22 00:36:00,36.7,15.7,30.25,ENE,76,3.0,6.0,42,0.00,,,0.00,Wunderground v.1.15,2013-02-22 05:36:00,
2013-02-22 00:39:00,36.6,16.2,30.25,East,93,3.0,6.0,43,0.00,,,0.00,Wunderground v.1.15,2013-02-22 05:39:00,
2013-02-22 00:40:00,36.6,16.2,30.25,South,180,6.0,6.0,43,0.00,,,0.00,Wunderground v.1.15,2013-02-22 05:40:00,
2013-02-22 00:41:00,36.6,15.6,30.25,South,175,4.0,6.0,42,0.00,,,0.00,Wunderground v.1.15,2013-02-22 05:41:00,
2013-02-22 00:43:00,36.6,16.2,30.26,SE,132,2.0,6.0,43,0.00,,,0.00,Wunderground v.1.15,2013-02-22 05:43:00,
2013-02-22 00:48:00,36.6,16.0,30.26,SE,130,3.0,9.0,43,0.00,,,0.00,weatherlink.com 1.10,2013-02-22 05:48:00,
2013-02-22 00:49:00,36.5,16.1,30.26,South,180,8.0,8.0,43,0.00,,,0.00,Wunderground v.1.15,2013-02-22 05:49:00,
2013-02-22 00:53:00,36.4,16.0,30.27,SSE,161,6.0,7.0,43,0.00,,,0.00,Wunderground v.1.15,2013-02-22 05:53:00,
2013-02-22 00:58:00,36.2,19.3,30.27,South,176,10.0,10.0,50,0.00,,,0.00,Wunderground v.1.15,2013-02-22 05:58:00,
2013-02-22 00:59:00,36.1,20.2,30.27,SSE,158,13.0,13.0,52,0.00,,,0.00,Wunderground v.1.15,2013-02-22 05:59:00,
2013-02-22 01:00:00,35.9,20.4,30.27,SSE,155,13.0,13.0,53,0.00,,,0.00,Wunderground v.1.15,2013-02-22 06:00:00,
2013-02-22 01:04:00,35.4,19.9,30.27,SSW,202,3.0,13.0,53,0.00,,,0.00,Wunderground v.1.15,2013-02-22 06:04:00,
2013-02-22 01:05:00,35.3,21.6,30.27,South,174,4.0,13.0,57,0.00,,,0.00,Wunderground v.1.15,2013-02-22 06:05:00,
2013-02-22 01:09:00,34.7,22.6,30.27,SSE,157,4.0,13.0,61,0.00,,,0.00,Wunderground v.1.15,2013-02-22 06:09:00,
2013-02-22 01:11:00,34.4,22.7,30.27,SSE,162,5.0,6.0,62,0.00,,,0.00,Wunderground v.1.15,2013-02-22 06:11:00,
2013-02-22 01:12:00,34.2,22.9,30.27,SSE,148,3.0,6.0,63,0.00,,,0.00,Wunderground v.1.15,2013-02-22 06:12:00,
2013-02-22 01:16:00,33.5,24.1,30.27,SSE,151,6.0,8.0,68,0.00,,,0.00,Wunderground v.1.15,2013-02-22 06:16:00,
2013-02-22 01:17:00,33.3,24.2,30.27,SSE,153,5.0,8.0,69,0.00,,,0.00,Wunderground v.1.15,2013-02-22 06:17:00,
2013-02-22 01:19:00,32.9,25.0,30.27,SSE,147,5.0,10.0,72,0.00,,,0.00,weatherlink.com 1.10,2013-02-22 06:19:00,
2013-02-22 01:21:00,32.6,25.2,30.26,ENE,77,0.0,5.0,74,0.00,,,0.00,Wunderground v.1.15,2013-02-22 06:21:00,
2013-02-22 01:25:00,32.1,25.7,30.27,SE,141,1.0,6.0,77,0.00,,,0.00,Wunderground v.1.15,2013-02-22 06:25:00,
2013-02-22 01:28:00,31.7,26.2,30.27,South,181,2.0,6.0,80,0.00,,,0.00,Wunderground v.1.15,2013-02-22 06:28:00,
2013-02-22 01:29:00,31.7,26.2,30.26,SSE,161,3.0,6.0,80,0.00,,,0.00,Wunderground v.1.15,2013-02-22 06:29:00,
2013-02-22 01:31:00,31.5,26.3,30.26,SE,132,2.0,3.0,81,0.00,,,0.00,Wunderground v.1.15,2013-02-22 06:31:00,
2013-02-22 01:32:00,31.4,26.2,30.26,ENE,59,0.0,3.0,81,0.00,,,0.00,Wunderground v.1.15,2013-02-22 06:32:00,
2013-02-22 01:34:00,31.2,26.0,30.27,SSE,148,1.0,4.0,82,0.00,,,0.00,weatherlink.com 1.10,2013-02-22 06:34:00,
2013-02-22 01:38:00,30.8,26.5,30.26,SSE,154,0.0,3.0,84,0.00,,,0.00,Wunderground v.1.15,2013-02-22 06:38:00,
2013-02-22 01:40:00,30.6,26.3,30.26,ESE,119,1.0,2.0,84,0.00,,,0.00,Wunderground v.1.15,2013-02-22 06:40:00,
2013-02-22 01:41:00,30.5,26.5,30.26,ESE,105,2.0,2.0,85,0.00,,,0.00,Wunderground v.1.15,2013-02-22 06:41:00,
2013-02-22 01:47:00,30.1,26.7,30.25,ENE,67,2.0,4.0,87,0.00,,,0.00,Wunderground v.1.15,2013-02-22 06:47:00,
2013-02-22 01:49:00,30.0,26.6,30.25,ENE,74,2.0,4.0,87,0.00,,,0.00,Wunderground v.1.15,2013-02-22 06:49:00,
2013-02-22 01:50:00,29.9,27.0,30.25,ENE,70,4.0,7.0,87,0.00,,,0.00,weatherlink.com 1.10,2013-02-22 06:50:00,
2013-02-22 01:54:00,29.7,26.6,30.25,ESE,109,1.0,3.0,88,0.00,,,0.00,Wunderground v.1.15,2013-02-22 06:54:00,
2013-02-22 01:55:00,29.7,26.6,30.25,ENE,73,3.0,3.0,88,0.00,,,0.00,Wunderground v.1.15,2013-02-22 06:55:00,
2013-02-22 01:56:00,29.7,26.6,30.25,South,180,1.0,3.0,88,0.00,,,0.00,Wunderground v.1.15,2013-02-22 06:56:00,
2013-02-22 02:00:00,29.4,26.3,30.25,SSE,159,2.0,3.0,88,0.00,,,0.00,Wunderground v.1.15,2013-02-22 07:00:00,
2013-02-22 02:01:00,29.4,26.3,30.25,ENE,73,1.0,3.0,88,0.00,,,0.00,Wunderground v.1.15,2013-02-22 07:01:00,
2013-02-22 02:05:00,29.3,26.5,30.25,East,79,3.0,6.0,89,0.00,,,0.00,Wunderground v.1.15,2013-02-22 07:05:00,
2013-02-22 02:06:00,29.3,26.5,30.25,SE,134,3.0,6.0,89,0.00,,,0.00,Wunderground v.1.15,2013-02-22 07:06:00,
2013-02-22 02:10:00,29.3,26.5,30.24,East,80,6.0,9.0,89,0.00,,,0.00,Wunderground v.1.15,2013-02-22 07:10:00,
2013-02-22 02:11:00,29.3,26.5,30.24,ESE,115,4.0,9.0,89,0.00,,,0.00,Wunderground v.1.15,2013-02-22 07:11:00,
2013-02-22 02:16:00,29.3,26.5,30.24,ENE,74,5.0,9.0,89,0.00,,,0.00,Wunderground v.1.15,2013-02-22 07:16:00,
2013-02-22 02:17:00,29.4,26.6,30.24,ENE,76,0.0,9.0,89,0.00,,,0.00,Wunderground v.1.15,2013-02-22 07:17:00,
2013-02-22 02:21:00,29.4,26.6,30.24,SSE,150,7.0,7.0,89,0.00,,,0.00,Wunderground v.1.15,2013-02-22 07:21:00,
2013-02-22 02:22:00,29.4,26.6,30.24,East,81,5.0,7.0,89,0.00,,,0.00,Wunderground v.1.15,2013-02-22 07:22:00,
2013-02-22 02:26:00,29.5,26.9,30.24,SE,130,4.0,7.0,90,0.00,,,0.00,Wunderground v.1.15,2013-02-22 07:26:00,
2013-02-22 02:27:00,29.5,26.9,30.24,SSE,161,3.0,7.0,90,0.00,,,0.00,Wunderground v.1.15,2013-02-22 07:27:00,
2013-02-22 02:31:00,29.6,27.0,30.25,SSE,154,1.0,6.0,90,0.00,,,0.00,Wunderground v.1.15,2013-02-22 07:31:00,
2013-02-22 02:32:00,29.6,27.0,30.25,SSE,156,5.0,6.0,90,0.00,,,0.00,Wunderground v.1.15,2013-02-22 07:32:00,
2013-02-22 02:37:00,29.6,27.0,30.25,South,171,4.0,10.0,90,0.00,,,0.00,Wunderground v.1.15,2013-02-22 07:37:00,
2013-02-22 02:38:00,29.6,27.0,30.25,SSE,157,3.0,10.0,90,0.00,,,0.00,Wunderground v.1.15,2013-02-22 07:38:00,
2013-02-22 02:42:00,29.5,26.9,30.25,SSE,165,5.0,12.0,90,0.00,,,0.00,Wunderground v.1.15,2013-02-22 07:42:00,
2013-02-22 02:43:00,29.5,26.9,30.25,South,173,8.0,12.0,90,0.00,,,0.00,Wunderground v.1.15,2013-02-22 07:43:00,
2013-02-22 02:48:00,29.4,26.6,30.24,SSE,167,3.0,12.0,89,0.00,,,0.00,Wunderground v.1.15,2013-02-22 07:48:00,
2013-02-22 02:53:00,29.3,26.7,30.25,SSE,157,4.0,8.0,90,0.00,,,0.00,Wunderground v.1.15,2013-02-22 07:53:00,
2013-02-22 02:58:00,29.2,26.4,30.25,SE,135,1.0,8.0,89,0.00,,,0.00,Wunderground v.1.15,2013-02-22 07:58:00,
2013-02-22 02:59:00,29.2,26.4,30.25,SSE,165,1.0,8.0,89,0.00,,,0.00,Wunderground v.1.15,2013-02-22 07:59:00,
2013-02-22 03:03:00,29.2,26.4,30.25,South,178,5.0,6.0,89,0.00,,,0.00,Wunderground v.1.15,2013-02-22 08:03:00,
2013-02-22 03:04:00,29.2,26.4,30.25,WSW,238,2.0,6.0,89,0.00,,,0.00,Wunderground v.1.15,2013-02-22 08:04:00,
2013-02-22 03:08:00,29.1,26.3,30.25,SE,140,4.0,11.0,89,0.00,,,0.00,Wunderground v.1.15,2013-02-22 08:08:00,
2013-02-22 03:09:00,29.1,26.3,30.25,SSE,150,6.0,11.0,89,0.00,,,0.00,Wunderground v.1.15,2013-02-22 08:09:00,
2013-02-22 03:14:00,29.0,26.2,30.25,ESE,116,5.0,11.0,89,0.00,,,0.00,Wunderground v.1.15,2013-02-22 08:14:00,
2013-02-22 03:19:00,28.8,26.2,30.24,SSE,154,3.0,11.0,90,0.00,,,0.00,Wunderground v.1.15,2013-02-22 08:19:00,
2013-02-22 03:20:00,28.8,26.2,30.23,SSE,166,5.0,7.0,90,0.00,,,0.00,Wunderground v.1.15,2013-02-22 08:20:00,
2013-02-22 03:24:00,28.7,26.1,30.21,East,82,2.0,7.0,90,0.00,,,0.00,Wunderground v.1.15,2013-02-22 08:24:00,
2013-02-22 03:26:00,28.7,26.1,30.21,East,98,2.0,7.0,90,0.00,,,0.00,Wunderground v.1.15,2013-02-22 08:26:00,
2013-02-22 03:29:00,28.7,26.1,30.20,East,98,5.0,7.0,90,0.00,,,0.00,Wunderground v.1.15,2013-02-22 08:29:00,
2013-02-22 03:30:00,28.7,26.1,30.20,SE,124,3.0,4.0,90,0.00,,,0.00,Wunderground v.1.15,2013-02-22 08:30:00,
2013-02-22 03:31:00,28.6,26.0,30.20,East,81,6.0,6.0,90,0.00,,,0.00,Wunderground v.1.15,2013-02-22 08:31:00,
2013-02-22 03:34:00,28.6,26.0,30.18,South,173,4.0,14.0,90,0.00,,,0.00,Wunderground v.1.15,2013-02-22 08:34:00,
2013-02-22 03:35:00,28.6,26.0,30.18,ESE,121,7.0,14.0,90,0.00,,,0.00,Wunderground v.1.15,2013-02-22 08:35:00,
2013-02-22 03:36:00,28.6,26.0,30.17,ESE,117,7.0,14.0,90,0.00,,,0.00,Wunderground v.1.15,2013-02-22 08:36:00,
2013-02-22 03:40:00,28.5,26.2,30.20,SSE,165,6.0,6.0,91,0.00,,,0.00,Wunderground v.1.15,2013-02-22 08:40:00,
2013-02-22 03:41:00,28.5,26.2,30.20,SSE,159,7.0,12.0,91,0.00,,,0.00,Wunderground v.1.15,2013-02-22 08:41:00,
2013-02-22 03:45:00,28.5,26.2,30.18,ENE,67,4.0,14.0,91,0.00,,,0.00,Wunderground v.1.15,2013-02-22 08:45:00,
2013-02-22 03:46:00,28.5,26.2,30.18,East,89,2.0,14.0,91,0.00,,,0.00,Wunderground v.1.15,2013-02-22 08:46:00,
2013-02-22 03:50:00,28.5,26.2,30.18,NE,40,3.0,4.0,91,0.00,,,0.00,Wunderground v.1.15,2013-02-22 08:50:00,
2013-02-22 03:52:00,28.5,26.2,30.18,East,94,1.0,5.0,91,0.00,,,0.00,Wunderground v.1.15,2013-02-22 08:52:00,
2013-02-22 03:55:00,28.5,26.2,30.18,South,178,2.0,5.0,91,0.00,,,0.00,Wunderground v.1.15,2013-02-22 08:55:00,
2013-02-22 03:56:00,28.5,26.2,30.19,SSE,159,2.0,5.0,91,0.00,,,0.00,Wunderground v.1.15,2013-02-22 08:56:00,
2013-02-22 03:57:00,28.5,26.2,30.19,SE,125,0.0,5.0,91,0.00,,,0.00,Wunderground v.1.15,2013-02-22 08:57:00,
2013-02-22 04:00:00,28.5,26.2,30.18,ESE,116,1.0,3.0,91,0.00,,,0.00,Wunderground v.1.15,2013-02-22 09:00:00,
2013-02-22 04:01:00,28.5,26.2,30.18,SSE,153,5.0,7.0,91,0.00,,,0.00,Wunderground v.1.15,2013-02-22 09:01:00,
2013-02-22 04:02:00,28.5,26.2,30.18,East,96,5.0,7.0,91,0.00,,,0.00,Wunderground v.1.15,2013-02-22 09:02:00,
2013-02-22 04:05:00,28.5,25.9,30.20,East,84,3.0,8.0,90,0.00,,,0.00,Wunderground v.1.15,2013-02-22 09:05:00,
2013-02-22 04:06:00,28.5,25.9,30.20,East,82,9.0,9.0,90,0.00,,,0.00,Wunderground v.1.15,2013-02-22 09:06:00,
2013-02-22 04:07:00,28.5,25.9,30.20,East,89,3.0,9.0,90,0.00,,,0.00,Wunderground v.1.15,2013-02-22 09:07:00,
2013-02-22 04:08:00,28.5,25.9,30.20,East,86,5.0,9.0,90,0.00,,,0.00,Wunderground v.1.15,2013-02-22 09:08:00,
2013-02-22 04:11:00,28.5,26.2,30.19,ESE,107,8.0,8.0,91,0.00,,,0.00,Wunderground v.1.15,2013-02-22 09:11:00,
2013-02-22 04:12:00,28.5,26.2,30.19,SE,124,3.0,8.0,91,0.00,,,0.00,Wunderground v.1.15,2013-02-22 09:12:00,
2013-02-22 04:13:00,28.4,26.1,30.20,East,82,2.0,8.0,91,0.00,,,0.00,Wunderground v.1.15,2013-02-22 09:13:00,
2013-02-22 04:16:00,28.4,26.1,30.18,East,92,11.0,12.0,91,0.00,,,0.00,Wunderground v.1.15,2013-02-22 09:16:00,
2013-02-22 04:17:00,28.4,26.1,30.17,NE,55,4.0,12.0,91,0.00,,,0.00,Wunderground v.1.15,2013-02-22 09:17:00,
2013-02-22 04:18:00,28.3,26.0,30.18,ENE,71,2.0,12.0,91,0.00,,,0.00,Wunderground v.1.15,2013-02-22 09:18:00,
2013-02-22 04:21:00,28.3,26.0,30.18,ENE,78,3.0,8.0,91,0.00,,,0.00,Wunderground v.1.15,2013-02-22 09:21:00,
2013-02-22 04:22:00,28.3,26.0,30.19,East,98,5.0,8.0,91,0.00,,,0.00,Wunderground v.1.15,2013-02-22 09:22:00,
2013-02-22 04:23:00,28.2,25.9,30.19,ENE,73,1.0,8.0,91,0.00,,,0.00,Wunderground v.1.15,2013-02-22 09:23:00,
2013-02-22 04:26:00,28.1,25.8,30.19,East,98,5.0,8.0,91,0.00,,,0.00,Wunderground v.1.15,2013-02-22 09:26:00,
2013-02-22 04:27:00,28.1,25.8,30.18,East,81,3.0,8.0,91,0.00,,,0.00,Wunderground v.1.15,2013-02-22 09:27:00,
2013-02-22 04:28:00,28.0,25.7,30.18,SSE,167,3.0,8.0,91,0.00,,,0.00,Wunderground v.1.15,2013-02-22 09:28:00,
2013-02-22 04:31:00,28.0,26.0,30.18,SE,130,0.0,3.0,92,0.00,,,0.00,Wunderground v.1.15,2013-02-22 09:31:00,
2013-02-22 04:32:00,27.9,25.9,30.18,ENE,76,3.0,6.0,92,0.00,,,0.00,Wunderground v.1.15,2013-02-22 09:32:00,
2013-02-22 04:34:00,27.9,25.9,30.18,East,85,5.0,6.0,92,0.00,,,0.00,Wunderground v.1.15,2013-02-22 09:34:00,
2013-02-22 04:36:00,27.9,25.9,30.18,SE,130,2.0,9.0,92,0.00,,,0.00,Wunderground v.1.15,2013-02-22 09:36:00,
2013-02-22 04:37:00,27.9,25.9,30.18,ESE,110,1.0,9.0,92,0.00,,,0.00,Wunderground v.1.15,2013-02-22 09:37:00,
2013-02-22 04:39:00,27.8,25.8,30.18,East,83,0.0,9.0,92,0.00,,,0.00,Wunderground v.1.15,2013-02-22 09:39:00,
2013-02-22 04:41:00,27.8,25.8,30.18,ESE,103,1.0,3.0,92,0.00,,,0.00,Wunderground v.1.15,2013-02-22 09:41:00,
2013-02-22 04:42:00,27.8,25.8,30.18,SE,130,2.0,3.0,92,0.00,,,0.00,Wunderground v.1.15,2013-02-22 09:42:00,
2013-02-22 04:43:00,27.8,25.8,30.18,East,86,5.0,5.0,92,0.00,,,0.00,Wunderground v.1.15,2013-02-22 09:43:00,
2013-02-22 04:45:00,27.8,25.8,30.18,SE,126,2.0,8.0,92,0.00,,,0.00,Wunderground v.1.15,2013-02-22 09:45:00,
2013-02-22 04:46:00,27.7,25.7,30.18,SE,128,4.0,8.0,92,0.00,,,0.00,Wunderground v.1.15,2013-02-22 09:46:00,
2013-02-22 04:48:00,27.7,25.7,30.18,ENE,64,3.0,8.0,92,0.00,,,0.00,Wunderground v.1.15,2013-02-22 09:48:00,
2013-02-22 04:49:00,27.6,25.6,30.19,East,88,1.0,8.0,92,0.00,,,0.00,Wunderground v.1.15,2013-02-22 09:49:00,
2013-02-22 04:50:00,27.6,25.6,30.18,ENE,75,5.0,8.0,92,0.00,,,0.00,Wunderground v.1.15,2013-02-22 09:50:00,
2013-02-22 04:51:00,27.6,25.6,30.18,NE,54,4.0,8.0,92,0.00,,,0.00,Wunderground v.1.15,2013-02-22 09:51:00,
2013-02-22 04:53:00,27.6,25.6,30.18,SE,125,2.0,8.0,92,0.00,,,0.00,Wunderground v.1.15,2013-02-22 09:53:00,
2013-02-22 04:54:00,27.6,25.6,30.18,East,82,5.0,8.0,92,0.00,,,0.00,Wunderground v.1.15,2013-02-22 09:54:00,
2013-02-22 04:55:00,27.6,25.6,30.18,East,81,9.0,9.0,92,0.00,,,0.00,Wunderground v.1.15,2013-02-22 09:55:00,
2013-02-22 04:56:00,27.6,25.6,30.18,SE,138,4.0,9.0,92,0.00,,,0.00,Wunderground v.1.15,2013-02-22 09:56:00,
2013-02-22 04:58:00,27.5,25.5,30.18,ENE,64,1.0,9.0,92,0.00,,,0.00,Wunderground v.1.15,2013-02-22 09:58:00,
2013-02-22 04:59:00,27.5,25.5,30.18,East,97,6.0,9.0,92,0.00,,,0.00,Wunderground v.1.15,2013-02-22 09:59:00,
2013-02-22 05:01:00,27.5,25.5,30.18,ESE,116,2.0,5.0,92,0.00,,,0.00,Wunderground v.1.15,2013-02-22 10:01:00,
2013-02-22 05:02:00,27.5,25.5,30.18,East,90,2.0,5.0,92,0.00,,,0.00,Wunderground v.1.15,2013-02-22 10:02:00,
2013-02-22 05:03:00,27.5,25.5,30.18,East,84,2.0,5.0,92,0.00,,,0.00,Wunderground v.1.15,2013-02-22 10:03:00,
2013-02-22 05:04:00,27.5,25.5,30.18,SSE,155,0.0,6.0,92,0.00,,,0.00,Wunderground v.1.15,2013-02-22 10:04:00,
2013-02-22 05:06:00,27.5,25.5,30.18,ENE,77,1.0,6.0,92,0.00,,,0.00,Wunderground v.1.15,2013-02-22 10:06:00,
2013-02-22 05:07:00,27.5,25.5,30.18,ESE,121,3.0,6.0,92,0.00,,,0.00,Wunderground v.1.15,2013-02-22 10:07:00,
2013-02-22 05:08:00,27.5,25.5,30.17,East,90,6.0,8.0,92,0.00,,,0.00,Wunderground v.1.15,2013-02-22 10:08:00,
2013-02-22 05:10:00,27.4,25.4,30.17,ESE,121,2.0,2.0,92,0.00,,,0.00,Wunderground v.1.15,2013-02-22 10:10:00,
2013-02-22 05:11:00,27.4,25.4,30.18,ENE,67,4.0,6.0,92,0.00,,,0.00,Wunderground v.1.15,2013-02-22 10:11:00,
2013-02-22 05:12:00,27.4,25.4,30.18,ESE,103,4.0,6.0,92,0.00,,,0.00,Wunderground v.1.15,2013-02-22 10:12:00,
2013-02-22 05:14:00,27.4,25.4,30.18,ENE,77,4.0,8.0,92,0.00,,,0.00,Wunderground v.1.15,2013-02-22 10:14:00,
2013-02-22 05:15:00,27.4,25.4,30.18,SSE,147,2.0,8.0,92,0.00,,,0.00,Wunderground v.1.15,2013-02-22 10:15:00,
2013-02-22 05:16:00,27.3,25.3,30.18,SE,138,5.0,8.0,92,0.00,,,0.00,Wunderground v.1.15,2013-02-22 10:16:00,
2013-02-22 05:17:00,27.3,25.5,30.18,ESE,122,2.0,9.0,93,0.00,,,0.00,Wunderground v.1.15,2013-02-22 10:17:00,
2013-02-22 05:19:00,27.3,25.5,30.18,SE,127,2.0,9.0,93,0.00,,,0.00,Wunderground v.1.15,2013-02-22 10:19:00,
2013-02-22 05:21:00,27.2,25.4,30.18,ENE,59,5.0,5.0,93,0.00,,,0.00,Wunderground v.1.15,2013-02-22 10:21:00,
2013-02-22 05:22:00,27.2,25.4,30.18,SE,138,5.0,8.0,93,0.00,,,0.00,Wunderground v.1.15,2013-02-22 10:22:00,
2013-02-22 05:25:00,27.2,25.4,30.19,East,87,0.0,8.0,93,0.00,,,0.00,Wunderground v.1.15,2013-02-22 10:25:00,
2013-02-22 05:26:00,27.2,25.4,30.18,East,84,5.0,8.0,93,0.00,,,0.00,Wunderground v.1.15,2013-02-22 10:26:00,
2013-02-22 05:27:00,27.1,25.3,30.18,SE,136,6.0,8.0,93,0.00,,,0.00,Wunderground v.1.15,2013-02-22 10:27:00,
2013-02-22 05:28:00,27.1,25.3,30.18,SE,139,1.0,8.0,93,0.00,,,0.00,Wunderground v.1.15,2013-02-22 10:28:00,
2013-02-22 05:30:00,27.1,25.3,30.18,SE,142,3.0,3.0,93,0.00,,,0.00,Wunderground v.1.15,2013-02-22 10:30:00,
2013-02-22 05:31:00,27.1,25.3,30.18,East,87,3.0,3.0,93,0.00,,,0.00,Wunderground v.1.15,2013-02-22 10:31:00,
2013-02-22 05:32:00,27.1,25.3,30.18,East,86,8.0,8.0,93,0.00,,,0.00,Wunderground v.1.15,2013-02-22 10:32:00,
2013-02-22 05:33:00,27.2,25.4,30.18,SE,129,3.0,8.0,93,0.00,,,0.00,Wunderground v.1.15,2013-02-22 10:33:00,
2013-02-22 05:36:00,27.1,25.3,30.18,East,84,3.0,8.0,93,0.00,,,0.00,Wunderground v.1.15,2013-02-22 10:36:00,
2013-02-22 05:37:00,27.1,25.3,30.18,East,90,2.0,8.0,93,0.00,,,0.00,Wunderground v.1.15,2013-02-22 10:37:00,
2013-02-22 05:38:00,27.1,25.6,30.18,East,94,3.0,8.0,94,0.00,,,0.00,Wunderground v.1.15,2013-02-22 10:38:00,
2013-02-22 05:41:00,27.1,25.6,30.18,ENE,78,7.0,7.0,94,0.00,,,0.00,Wunderground v.1.15,2013-02-22 10:41:00,
2013-02-22 05:42:00,27.1,25.6,30.18,SE,126,3.0,7.0,94,0.00,,,0.00,Wunderground v.1.15,2013-02-22 10:42:00,
2013-02-22 05:44:00,27.0,25.2,30.19,SSE,162,1.0,7.0,93,0.00,,,0.00,Wunderground v.1.15,2013-02-22 10:44:00,
2013-02-22 05:46:00,27.0,25.2,30.18,ENE,75,0.0,7.0,93,0.00,,,0.00,Wunderground v.1.15,2013-02-22 10:46:00,
2013-02-22 05:47:00,27.0,25.5,30.18,ESE,111,3.0,7.0,94,0.00,,,0.00,Wunderground v.1.15,2013-02-22 10:47:00,
2013-02-22 05:49:00,27.0,25.5,30.18,South,178,2.0,7.0,94,0.00,,,0.00,Wunderground v.1.15,2013-02-22 10:49:00,
2013-02-22 05:52:00,27.0,25.5,30.19,East,91,3.0,5.0,94,0.00,,,0.00,Wunderground v.1.15,2013-02-22 10:52:00,
2013-02-22 05:53:00,27.0,25.5,30.19,SE,134,3.0,5.0,94,0.00,,,0.00,Wunderground v.1.15,2013-02-22 10:53:00,
2013-02-22 05:54:00,27.0,25.5,30.19,East,101,2.0,5.0,94,0.00,,,0.00,Wunderground v.1.15,2013-02-22 10:54:00,
2013-02-22 05:57:00,27.0,25.5,30.19,ESE,109,3.0,7.0,94,0.00,,,0.00,Wunderground v.1.15,2013-02-22 10:57:00,
2013-02-22 05:58:00,27.0,25.5,30.18,ENE,74,5.0,7.0,94,0.00,,,0.00,Wunderground v.1.15,2013-02-22 10:58:00,
2013-02-22 06:01:00,27.0,25.5,30.18,ESE,105,3.0,4.0,94,0.00,,,0.00,Wunderground v.1.15,2013-02-22 11:01:00,
2013-02-22 06:02:00,27.0,25.5,30.18,SE,138,4.0,7.0,94,0.00,,,0.00,Wunderground v.1.15,2013-02-22 11:02:00,
2013-02-22 06:03:00,26.9,25.4,30.18,SE,136,1.0,7.0,94,0.00,,,0.00,Wunderground v.1.15,2013-02-22 11:03:00,
2013-02-22 06:06:00,26.9,25.4,30.18,ESE,108,5.0,7.0,94,0.00,,,0.00,Wunderground v.1.15,2013-02-22 11:06:00,
2013-02-22 06:07:00,26.9,25.4,30.18,East,89,6.0,8.0,94,0.00,,,0.00,Wunderground v.1.15,2013-02-22 11:07:00,
2013-02-22 06:08:00,26.9,25.4,30.18,East,101,5.0,8.0,94,0.00,,,0.00,Wunderground v.1.15,2013-02-22 11:08:00,
2013-02-22 06:11:00,26.9,25.4,30.18,East,85,2.0,8.0,94,0.00,,,0.00,Wunderground v.1.15,2013-02-22 11:11:00,
2013-02-22 06:12:00,26.8,25.3,30.19,East,100,1.0,8.0,94,0.00,,,0.00,Wunderground v.1.15,2013-02-22 11:12:00,
2013-02-22 06:13:00,26.9,25.4,30.19,East,100,0.0,8.0,94,0.00,,,0.00,Wunderground v.1.15,2013-02-22 11:13:00,
2013-02-22 06:14:00,26.9,25.4,30.19,East,100,0.0,8.0,94,0.00,,,0.00,Wunderground v.1.15,2013-02-22 11:14:00,
2013-02-22 06:16:00,26.9,25.4,30.19,East,84,1.0,8.0,94,0.00,,,0.00,Wunderground v.1.15,2013-02-22 11:16:00,
2013-02-22 06:18:00,26.9,25.4,30.19,South,169,3.0,8.0,94,0.00,,,0.00,Wunderground v.1.15,2013-02-22 11:18:00,
2013-02-22 06:19:00,26.9,25.4,30.19,ENE,70,4.0,8.0,94,0.00,,,0.00,Wunderground v.1.15,2013-02-22 11:19:00,
2013-02-22 06:21:00,27.0,25.5,30.19,SE,136,2.0,4.0,94,0.00,,,0.00,Wunderground v.1.15,2013-02-22 11:21:00,
2013-02-22 06:23:00,27.0,25.5,30.20,SE,141,3.0,5.0,94,0.00,,,0.00,Wunderground v.1.15,2013-02-22 11:23:00,
2013-02-22 06:24:00,27.0,25.5,30.20,ENE,74,2.0,5.0,94,0.00,,,0.00,Wunderground v.1.15,2013-02-22 11:24:00,
2013-02-22 06:26:00,27.0,25.5,30.20,South,175,4.0,5.0,94,0.00,,,0.00,Wunderground v.1.15,2013-02-22 11:26:00,
2013-02-22 06:28:00,27.0,25.5,30.20,SE,144,4.0,5.0,94,0.00,,,0.00,Wunderground v.1.15,2013-02-22 11:28:00,
2013-02-22 06:29:00,27.0,25.5,30.20,SSE,148,2.0,5.0,94,0.00,,,0.00,Wunderground v.1.15,2013-02-22 11:29:00,
2013-02-22 06:32:00,27.0,25.5,30.20,SSE,157,3.0,4.0,94,0.00,,,0.00,Wunderground v.1.15,2013-02-22 11:32:00,
2013-02-22 06:33:00,27.0,25.5,30.20,SE,144,1.0,4.0,94,0.00,,,0.00,Wunderground v.1.15,2013-02-22 11:33:00,
2013-02-22 06:34:00,26.9,25.4,30.20,SE,141,0.0,4.0,94,0.00,,,0.00,Wunderground v.1.15,2013-02-22 11:34:00,
2013-02-22 06:37:00,26.9,25.4,30.20,ESE,109,5.0,8.0,94,0.00,,,0.00,Wunderground v.1.15,2013-02-22 11:37:00,
2013-02-22 06:39:00,27.0,25.5,30.20,ESE,122,3.0,8.0,94,0.00,,,0.00,Wunderground v.1.15,2013-02-22 11:39:00,
2013-02-22 06:42:00,26.9,25.4,30.20,ESE,119,0.0,3.0,94,0.00,,,0.00,Wunderground v.1.15,2013-02-22 11:42:00,
2013-02-22 06:44:00,26.9,25.4,30.20,East,100,3.0,5.0,94,0.00,,,0.00,Wunderground v.1.15,2013-02-22 11:44:00,
2013-02-22 06:47:00,26.9,25.4,30.20,East,96,5.0,6.0,94,0.00,,,0.00,Wunderground v.1.15,2013-02-22 11:47:00,
2013-02-22 06:49:00,26.9,25.4,30.20,East,89,3.0,6.0,94,0.00,,,0.00,Wunderground v.1.15,2013-02-22 11:49:00,
2013-02-22 06:52:00,26.8,25.3,30.20,SSE,150,4.0,6.0,94,0.00,,,0.00,Wunderground v.1.15,2013-02-22 11:52:00,
2013-02-22 06:54:00,26.8,25.3,30.20,East,80,3.0,6.0,94,0.00,,,0.00,Wunderground v.1.15,2013-02-22 11:54:00,
2013-02-22 06:55:00,26.8,25.3,30.20,ENE,68,1.0,6.0,94,0.00,,,0.00,Wunderground v.1.15,2013-02-22 11:55:00,
2013-02-22 06:57:00,26.8,25.3,30.20,South,173,2.0,6.0,94,0.00,,,0.00,Wunderground v.1.15,2013-02-22 11:57:00,
2013-02-22 06:59:00,26.8,25.3,30.21,ESE,107,2.0,7.0,94,0.00,,,0.00,Wunderground v.1.15,2013-02-22 11:59:00,
2013-02-22 07:00:00,26.7,25.2,30.20,East,90,1.0,3.0,94,0.00,,,0.00,Wunderground v.1.15,2013-02-22 12:00:00,
2013-02-22 07:03:00,26.7,25.2,30.20,SSE,158,3.0,6.0,94,0.00,,,0.00,Wunderground v.1.15,2013-02-22 12:03:00,
2013-02-22 07:04:00,26.7,25.2,30.21,SSE,165,2.0,6.0,94,0.00,,,0.00,Wunderground v.1.15,2013-02-22 12:04:00,
2013-02-22 07:05:00,26.7,25.2,30.21,SSE,161,4.0,6.0,94,0.00,,,0.00,Wunderground v.1.15,2013-02-22 12:05:00,
2013-02-22 07:06:00,26.7,25.2,30.21,SSE,163,4.0,6.0,94,0.00,,,0.00,Wunderground v.1.15,2013-02-22 12:06:00,
2013-02-22 07:08:00,26.6,25.1,30.21,South,172,4.0,6.0,94,0.00,,,0.00,Wunderground v.1.15,2013-02-22 12:08:00,
2013-02-22 07:09:00,26.6,25.1,30.21,SE,136,4.0,6.0,94,0.00,,,0.00,Wunderground v.1.15,2013-02-22 12:09:00,
2013-02-22 07:10:00,26.6,25.1,30.21,ESE,103,1.0,2.0,94,0.00,,,0.00,Wunderground v.1.15,2013-02-22 12:10:00,
2013-02-22 07:11:00,26.6,25.1,30.21,ESE,118,2.0,2.0,94,0.00,,,0.00,Wunderground v.1.15,2013-02-22 12:11:00,
2013-02-22 07:13:00,26.6,25.1,30.21,SSE,150,2.0,4.0,94,0.00,,,0.00,Wunderground v.1.15,2013-02-22 12:13:00,
2013-02-22 07:15:00,26.6,25.1,30.21,East,83,5.0,8.0,94,0.00,,,0.00,Wunderground v.1.15,2013-02-22 12:15:00,
2013-02-22 07:16:00,26.5,25.0,30.21,ESE,107,5.0,8.0,94,0.00,,,0.00,Wunderground v.1.15,2013-02-22 12:16:00,
2013-02-22 07:18:00,26.4,24.9,30.21,SSE,150,4.0,8.0,94,0.00,,,0.00,Wunderground v.1.15,2013-02-22 12:18:00,
2013-02-22 07:20:00,26.4,24.9,30.21,SSE,159,2.0,7.0,94,0.00,,,0.00,Wunderground v.1.15,2013-02-22 12:20:00,
2013-02-22 07:21:00,26.4,24.9,30.21,SSE,154,5.0,7.0,94,0.00,,,0.00,Wunderground v.1.15,2013-02-22 12:21:00,
2013-02-22 07:24:00,26.3,24.8,30.21,SSE,148,6.0,7.0,94,0.00,,,0.00,Wunderground v.1.15,2013-02-22 12:24:00,
2013-02-22 07:25:00,26.3,24.8,30.21,SE,144,5.0,7.0,94,0.00,,,0.00,Wunderground v.1.15,2013-02-22 12:25:00,
2013-02-22 07:26:00,26.3,24.8,30.21,SSE,166,4.0,7.0,94,0.00,,,0.00,Wunderground v.1.15,2013-02-22 12:26:00,
2013-02-22 07:30:00,26.3,25.1,30.21,SE,138,2.0,4.0,95,0.00,,,0.00,Wunderground v.1.15,2013-02-22 12:30:00,
2013-02-22 07:31:00,26.3,25.1,30.21,SSE,162,2.0,4.0,95,0.00,,,0.00,Wunderground v.1.15,2013-02-22 12:31:00,
2013-02-22 07:35:00,26.2,25.0,30.22,ESE,122,4.0,7.0,95,0.00,,,0.00,Wunderground v.1.15,2013-02-22 12:35:00,
2013-02-22 07:36:00,26.2,25.0,30.21,ESE,120,2.0,7.0,95,0.00,,,0.00,Wunderground v.1.15,2013-02-22 12:36:00,
2013-02-22 07:37:00,26.2,25.0,30.21,East,87,7.0,7.0,95,0.00,,,0.00,Wunderground v.1.15,2013-02-22 12:37:00,
2013-02-22 07:41:00,26.1,24.9,30.22,South,183,2.0,6.0,95,0.00,,,0.00,Wunderground v.1.15,2013-02-22 12:41:00,
2013-02-22 07:42:00,26.1,24.9,30.22,ESE,115,2.0,7.0,95,0.00,,,0.00,Wunderground v.1.15,2013-02-22 12:42:00,
2013-02-22 07:45:00,26.2,25.0,30.22,South,175,5.0,7.0,95,0.00,,,0.00,Wunderground v.1.15,2013-02-22 12:45:00,
2013-02-22 07:46:00,26.2,25.0,30.22,SSE,150,4.0,7.0,95,0.00,,,0.00,Wunderground v.1.15,2013-02-22 12:46:00,
2013-02-22 07:47:00,26.2,25.0,30.22,ESE,111,1.0,7.0,95,0.00,,,0.00,Wunderground v.1.15,2013-02-22 12:47:00,
2013-02-22 07:50:00,26.2,25.0,30.23,ESE,114,3.0,3.0,95,0.00,,,0.00,Wunderground v.1.15,2013-02-22 12:50:00,
2013-02-22 07:51:00,26.2,25.0,30.22,ESE,117,2.0,4.0,95,0.00,,,0.00,Wunderground v.1.15,2013-02-22 12:51:00,
2013-02-22 07:52:00,26.2,25.0,30.22,SE,146,2.0,4.0,95,0.00,,,0.00,Wunderground v.1.15,2013-02-22 12:52:00,
2013-02-22 07:56:00,26.2,25.0,30.22,SSE,159,7.0,7.0,95,0.00,,,0.00,Wunderground v.1.15,2013-02-22 12:56:00,
2013-02-22 07:57:00,26.2,25.0,30.22,SSE,156,6.0,8.0,95,0.00,,,0.00,Wunderground v.1.15,2013-02-22 12:57:00,
2013-02-22 08:01:00,26.2,25.0,30.22,ESE,121,5.0,7.0,95,0.00,,,0.00,Wunderground v.1.15,2013-02-22 13:01:00,
2013-02-22 08:02:00,26.2,25.0,30.22,SE,142,5.0,7.0,95,0.00,,,0.00,Wunderground v.1.15,2013-02-22 13:02:00,
2013-02-22 08:06:00,26.1,24.9,30.22,ESE,123,5.0,7.0,95,0.00,,,0.00,Wunderground v.1.15,2013-02-22 13:06:00,
2013-02-22 08:07:00,26.1,24.9,30.22,SSE,155,4.0,7.0,95,0.00,,,0.00,Wunderground v.1.15,2013-02-22 13:07:00,
2013-02-22 08:08:00,26.1,24.9,30.22,SE,136,8.0,8.0,95,0.00,,,0.00,Wunderground v.1.15,2013-02-22 13:08:00,
2013-02-22 08:11:00,26.1,24.9,30.22,SSE,157,3.0,4.0,95,0.00,,,0.00,Wunderground v.1.15,2013-02-22 13:11:00,
2013-02-22 08:12:00,26.1,24.9,30.22,SSE,155,2.0,4.0,95,0.00,,,0.00,Wunderground v.1.15,2013-02-22 13:12:00,
2013-02-22 08:13:00,26.1,24.9,30.22,SSE,165,5.0,5.0,95,0.00,,,0.00,Wunderground v.1.15,2013-02-22 13:13:00,
2013-02-22 08:17:00,26.1,24.9,30.23,SE,134,3.0,7.0,95,0.00,,,0.00,Wunderground v.1.15,2013-02-22 13:17:00,
2013-02-22 08:18:00,26.2,25.0,30.23,South,175,6.0,7.0,95,0.00,,,0.00,Wunderground v.1.15,2013-02-22 13:18:00,
2013-02-22 08:22:00,26.2,25.0,30.23,SE,142,1.0,5.0,95,0.00,,,0.00,Wunderground v.1.15,2013-02-22 13:22:00,
2013-02-22 08:23:00,26.2,25.0,30.23,NE,46,1.0,5.0,95,0.00,,,0.00,Wunderground v.1.15,2013-02-22 13:23:00,
2013-02-22 08:27:00,26.1,24.9,30.22,South,176,3.0,6.0,95,0.00,,,0.00,Wunderground v.1.15,2013-02-22 13:27:00,
2013-02-22 08:28:00,26.1,24.9,30.23,ESE,103,3.0,7.0,95,0.00,,,0.00,Wunderground v.1.15,2013-02-22 13:28:00,
2013-02-22 08:32:00,26.1,24.9,30.22,East,84,6.0,7.0,95,0.00,,,0.00,Wunderground v.1.15,2013-02-22 13:32:00,
2013-02-22 08:34:00,26.0,24.8,30.22,ESE,109,3.0,8.0,95,0.00,,,0.00,Wunderground v.1.15,2013-02-22 13:34:00,
2013-02-22 08:38:00,26.1,24.9,30.22,SE,125,6.0,8.0,95,0.00,,,0.00,Wunderground v.1.15,2013-02-22 13:38:00,
2013-02-22 08:39:00,26.1,24.9,30.22,East,96,5.0,8.0,95,0.00,,,0.00,Wunderground v.1.15,2013-02-22 13:39:00,
2013-02-22 08:44:00,26.0,24.8,30.23,East,83,2.0,8.0,95,0.00,,,0.00,Wunderground v.1.15,2013-02-22 13:44:00,
2013-02-22 08:45:00,26.0,24.8,30.23,SSE,156,7.0,8.0,95,0.00,,,0.00,Wunderground v.1.15,2013-02-22 13:45:00,
2013-02-22 08:49:00,26.0,24.8,30.23,East,84,8.0,8.0,95,0.00,,,0.00,Wunderground v.1.15,2013-02-22 13:49:00,
2013-02-22 08:50:00,26.0,24.8,30.23,SE,128,0.0,4.0,95,0.00,,,0.00,Wunderground v.1.15,2013-02-22 13:50:00,
2013-02-22 08:54:00,26.1,24.9,30.23,East,91,2.0,8.0,95,0.00,,,0.00,Wunderground v.1.15,2013-02-22 13:54:00,
2013-02-22 08:55:00,26.1,24.9,30.22,East,91,5.0,8.0,95,0.00,,,0.00,Wunderground v.1.15,2013-02-22 13:55:00,
2013-02-22 08:56:00,26.1,24.9,30.22,ENE,63,4.0,8.0,95,0.00,,,0.00,Wunderground v.1.15,2013-02-22 13:56:00,
2013-02-22 08:59:00,26.1,24.9,30.22,East,96,6.0,8.0,95,0.00,,,0.00,Wunderground v.1.15,2013-02-22 13:59:00,
2013-02-22 09:00:00,26.1,24.9,30.23,ESE,114,2.0,8.0,95,0.00,,,0.00,Wunderground v.1.15,2013-02-22 14:00:00,
2013-02-22 09:01:00,26.1,24.9,30.23,East,86,1.0,8.0,95,0.00,,,0.00,Wunderground v.1.15,2013-02-22 14:01:00,
2013-02-22 09:04:00,26.1,24.9,30.23,East,89,3.0,8.0,95,0.00,,,0.00,Wunderground v.1.15,2013-02-22 14:04:00,
2013-02-22 09:05:00,26.1,24.9,30.23,East,89,2.0,8.0,95,0.00,,,0.00,Wunderground v.1.15,2013-02-22 14:05:00,
2013-02-22 09:06:00,26.1,24.9,30.23,ENE,65,2.0,8.0,95,0.00,,,0.00,Wunderground v.1.15,2013-02-22 14:06:00,
2013-02-22 09:10:00,26.1,24.9,30.23,NE,55,1.0,8.0,95,0.00,,,0.00,Wunderground v.1.15,2013-02-22 14:10:00,
2013-02-22 09:11:00,26.1,24.9,30.23,East,90,5.0,7.0,95,0.00,,,0.00,Wunderground v.1.15,2013-02-22 14:11:00,
2013-02-22 09:12:00,26.1,24.9,30.23,SE,143,3.0,7.0,95,0.00,,,0.00,Wunderground v.1.15,2013-02-22 14:12:00,
2013-02-22 09:15:00,26.1,24.9,30.23,South,171,2.0,7.0,95,0.00,,,0.00,Wunderground v.1.15,2013-02-22 14:15:00,
2013-02-22 09:16:00,26.1,24.9,30.23,ESE,110,2.0,7.0,95,0.00,,,0.00,Wunderground v.1.15,2013-02-22 14:16:00,
2013-02-22 09:17:00,26.2,25.0,30.23,SSE,153,1.0,7.0,95,0.00,,,0.00,Wunderground v.1.15,2013-02-22 14:17:00,
2013-02-22 09:20:00,26.3,25.1,30.22,ENE,60,2.0,3.0,95,0.00,,,0.00,Wunderground v.1.15,2013-02-22 14:20:00,
2013-02-22 09:21:00,26.3,25.1,30.22,ESE,109,1.0,3.0,95,0.00,,,0.00,Wunderground v.1.15,2013-02-22 14:21:00,
2013-02-22 09:22:00,26.3,25.1,30.22,East,85,0.0,3.0,95,0.00,,,0.00,Wunderground v.1.15,2013-02-22 14:22:00,
2013-02-22 09:25:00,26.4,25.2,30.22,East,87,2.0,5.0,95,0.00,,,0.00,Wunderground v.1.15,2013-02-22 14:25:00,
2013-02-22 09:26:00,26.4,25.2,30.22,ENE,74,2.0,5.0,95,0.00,,,0.00,Wunderground v.1.15,2013-02-22 14:26:00,
2013-02-22 09:27:00,26.4,25.2,30.22,East,88,2.0,5.0,95,0.00,,,0.00,Wunderground v.1.15,2013-02-22 14:27:00,
2013-02-22 09:30:00,26.5,25.3,30.22,SSE,155,2.0,4.0,95,0.00,,,0.00,Wunderground v.1.15,2013-02-22 14:30:00,
2013-02-22 09:31:00,26.5,25.3,30.22,SE,143,3.0,4.0,95,0.00,,,0.00,Wunderground v.1.15,2013-02-22 14:31:00,
2013-02-22 09:32:00,26.5,25.3,30.22,SE,139,1.0,4.0,95,0.00,,,0.00,Wunderground v.1.15,2013-02-22 14:32:00,
2013-02-22 09:33:00,26.6,25.4,30.21,SSE,167,1.0,4.0,95,0.00,,,0.00,Wunderground v.1.15,2013-02-22 14:33:00,
2013-02-22 09:36:00,26.6,25.4,30.21,East,97,1.0,5.0,95,0.00,,,0.00,Wunderground v.1.15,2013-02-22 14:36:00,
2013-02-22 09:37:00,26.6,25.4,30.21,SSE,165,2.0,5.0,95,0.00,,,0.00,Wunderground v.1.15,2013-02-22 14:37:00,
2013-02-22 09:38:00,26.6,25.4,30.21,SE,135,1.0,5.0,95,0.00,,,0.00,Wunderground v.1.15,2013-02-22 14:38:00,
2013-02-22 09:41:00,26.7,25.5,30.21,SSE,167,0.0,2.0,95,0.00,,,0.00,Wunderground v.1.15,2013-02-22 14:41:00,
2013-02-22 09:42:00,26.7,25.5,30.21,SSE,167,0.0,2.0,95,0.00,,,0.00,Wunderground v.1.15,2013-02-22 14:42:00,
2013-02-22 09:43:00,26.8,25.6,30.21,SSE,163,0.0,2.0,95,0.00,,,0.00,Wunderground v.1.15,2013-02-22 14:43:00,
2013-02-22 09:46:00,26.8,25.6,30.21,ENE,73,2.0,6.0,95,0.00,,,0.00,Wunderground v.1.15,2013-02-22 14:46:00,
2013-02-22 09:47:00,26.8,25.6,30.21,ESE,113,5.0,6.0,95,0.00,,,0.00,Wunderground v.1.15,2013-02-22 14:47:00,
2013-02-22 09:48:00,26.8,25.6,30.21,East,100,3.0,7.0,95,0.00,,,0.00,Wunderground v.1.15,2013-02-22 14:48:00,
2013-02-22 09:52:00,26.7,25.5,30.20,ENE,67,3.0,3.0,95,0.00,,,0.00,Wunderground v.1.15,2013-02-22 14:52:00,
2013-02-22 09:54:00,26.7,25.5,30.21,SSE,161,4.0,4.0,95,0.00,,,0.00,Wunderground v.1.15,2013-02-22 14:54:00,
2013-02-22 09:57:00,26.8,25.6,30.21,SSE,165,1.0,4.0,95,0.00,,,0.00,Wunderground v.1.15,2013-02-22 14:57:00,
2013-02-22 09:58:00,26.9,25.7,30.21,SSE,165,1.0,4.0,95,0.00,,,0.00,Wunderground v.1.15,2013-02-22 14:58:00,
2013-02-22 09:59:00,26.9,25.7,30.21,South,169,3.0,4.0,95,0.00,,,0.00,Wunderground v.1.15,2013-02-22 14:59:00,
2013-02-22 10:02:00,27.0,25.8,30.21,SSE,159,4.0,5.0,95,0.00,,,0.00,Wunderground v.1.15,2013-02-22 15:02:00,
2013-02-22 10:03:00,27.0,25.8,30.21,SSE,158,2.0,5.0,95,0.00,,,0.00,Wunderground v.1.15,2013-02-22 15:03:00,
2013-02-22 10:06:00,27.0,25.8,30.21,East,82,3.0,6.0,95,0.00,,,0.00,Wunderground v.1.15,2013-02-22 15:06:00,
2013-02-22 10:07:00,27.0,25.8,30.20,East,85,2.0,6.0,95,0.00,,,0.00,Wunderground v.1.15,2013-02-22 15:07:00,
2013-02-22 10:08:00,27.0,25.8,30.21,ESE,102,0.0,6.0,95,0.00,,,0.00,Wunderground v.1.15,2013-02-22 15:08:00,
2013-02-22 10:09:00,27.0,25.8,30.21,East,82,1.0,6.0,95,0.00,,,0.00,Wunderground v.1.15,2013-02-22 15:09:00,
2013-02-22 10:11:00,27.0,25.8,30.20,East,90,1.0,3.0,95,0.00,,,0.00,Wunderground v.1.15,2013-02-22 15:11:00,
2013-02-22 10:12:00,27.0,25.8,30.21,SSE,155,0.0,3.0,95,0.00,,,0.00,Wunderground v.1.15,2013-02-22 15:12:00,
2013-02-22 10:14:00,27.1,25.9,30.21,SSE,157,3.0,3.0,95,0.00,,,0.00,Wunderground v.1.15,2013-02-22 15:14:00,
2013-02-22 10:15:00,27.1,25.9,30.21,SE,140,1.0,3.0,95,0.00,,,0.00,Wunderground v.1.15,2013-02-22 15:15:00,
2013-02-22 10:17:00,27.2,26.0,30.21,SE,142,1.0,3.0,95,0.00,,,0.00,Wunderground v.1.15,2013-02-22 15:17:00,
2013-02-22 10:19:00,27.2,26.0,30.21,South,174,1.0,3.0,95,0.00,,,0.00,Wunderground v.1.15,2013-02-22 15:19:00,
2013-02-22 10:20:00,27.2,26.0,30.21,South,172,2.0,4.0,95,0.00,,,0.00,Wunderground v.1.15,2013-02-22 15:20:00,
2013-02-22 10:22:00,27.2,26.0,30.21,SSE,148,1.0,5.0,95,0.00,,,0.00,Wunderground v.1.15,2013-02-22 15:22:00,
2013-02-22 10:23:00,27.2,26.0,30.21,SSE,148,0.0,5.0,95,0.00,,,0.00,Wunderground v.1.15,2013-02-22 15:23:00,
2013-02-22 10:24:00,27.2,26.0,30.21,SSE,163,3.0,5.0,95,0.00,,,0.00,Wunderground v.1.15,2013-02-22 15:24:00,
2013-02-22 10:26:00,27.3,26.1,30.21,South,181,3.0,5.0,95,0.00,,,0.00,Wunderground v.1.15,2013-02-22 15:26:00,
2013-02-22 10:28:00,27.4,26.2,30.21,SE,142,3.0,5.0,95,0.00,,,0.00,Wunderground v.1.15,2013-02-22 15:28:00,
2013-02-22 10:30:00,27.5,26.3,30.20,SE,127,3.0,5.0,95,0.00,,,0.00,Wunderground v.1.15,2013-02-22 15:30:00,
2013-02-22 10:31:00,27.5,26.3,30.20,SSE,153,4.0,5.0,95,0.00,,,0.00,Wunderground v.1.15,2013-02-22 15:31:00,
2013-02-22 10:33:00,27.5,26.3,30.20,SE,146,5.0,6.0,95,0.00,,,0.00,Wunderground v.1.15,2013-02-22 15:33:00,
2013-02-22 10:35:00,27.5,26.3,30.20,South,179,2.0,6.0,95,0.00,,,0.00,Wunderground v.1.15,2013-02-22 15:35:00,
2013-02-22 10:36:00,27.5,26.3,30.20,SSE,155,1.0,6.0,95,0.00,,,0.00,Wunderground v.1.15,2013-02-22 15:36:00,
2013-02-22 10:38:00,27.5,26.3,30.21,South,174,2.0,6.0,95,0.00,,,0.00,Wunderground v.1.15,2013-02-22 15:38:00,
2013-02-22 10:39:00,27.5,26.3,30.21,SE,146,5.0,6.0,95,0.00,,,0.00,Wunderground v.1.15,2013-02-22 15:39:00,
2013-02-22 10:40:00,27.5,26.3,30.20,SE,142,3.0,4.0,95,0.00,,,0.00,Wunderground v.1.15,2013-02-22 15:40:00,
2013-02-22 10:41:00,27.5,26.3,30.20,SW,219,1.0,4.0,95,0.00,,,0.00,Wunderground v.1.15,2013-02-22 15:41:00,
2013-02-22 10:44:00,27.4,26.2,30.20,South,170,2.0,5.0,95,0.00,,,0.00,Wunderground v.1.15,2013-02-22 15:44:00,
2013-02-22 10:45:00,27.5,26.3,30.21,SSE,164,0.0,5.0,95,0.00,,,0.00,Wunderground v.1.15,2013-02-22 15:45:00,
2013-02-22 10:46:00,27.5,26.3,30.21,SSW,194,2.0,5.0,95,0.00,,,0.00,Wunderground v.1.15,2013-02-22 15:46:00,
2013-02-22 10:49:00,27.6,26.4,30.20,South,178,4.0,5.0,95,0.00,,,0.00,Wunderground v.1.15,2013-02-22 15:49:00,
2013-02-22 10:50:00,27.6,26.4,30.21,South,180,3.0,3.0,95,0.00,,,0.00,Wunderground v.1.15,2013-02-22 15:50:00,
2013-02-22 10:51:00,27.6,26.4,30.20,SE,143,3.0,4.0,95,0.00,,,0.00,Wunderground v.1.15,2013-02-22 15:51:00,
2013-02-22 10:54:00,27.8,26.6,30.20,South,184,4.0,5.0,95,0.00,,,0.00,Wunderground v.1.15,2013-02-22 15:54:00,
2013-02-22 10:55:00,27.9,26.7,30.20,SE,142,3.0,5.0,95,0.00,,,0.00,Wunderground v.1.15,2013-02-22 15:55:00,
2013-02-22 10:56:00,27.9,26.7,30.21,SE,136,3.0,5.0,95,0.00,,,0.00,Wunderground v.1.15,2013-02-22 15:56:00,
2013-02-22 10:57:00,27.9,26.7,30.21,SSE,167,5.0,7.0,95,0.00,,,0.00,Wunderground v.1.15,2013-02-22 15:57:00,
2013-02-22 10:59:00,27.9,26.7,30.20,SE,135,6.0,7.0,95,0.00,,,0.00,Wunderground v.1.15,2013-02-22 15:59:00,
2013-02-22 11:00:00,27.9,26.7,30.20,SSE,161,5.0,5.0,95,0.00,,,0.00,Wunderground v.1.15,2013-02-22 16:00:00,
2013-02-22 11:01:00,27.8,26.6,30.20,SSW,192,3.0,6.0,95,0.00,,,0.00,Wunderground v.1.15,2013-02-22 16:01:00,
2013-02-22 11:02:00,27.8,26.6,30.20,SE,135,3.0,6.0,95,0.00,,,0.00,Wunderground v.1.15,2013-02-22 16:02:00,
2013-02-22 11:05:00,27.9,26.7,30.20,SSE,149,7.0,7.0,95,0.00,,,0.00,Wunderground v.1.15,2013-02-22 16:05:00,
2013-02-22 11:06:00,27.9,26.7,30.20,SE,146,5.0,7.0,95,0.00,,,0.00,Wunderground v.1.15,2013-02-22 16:06:00,
2013-02-22 11:08:00,28.0,26.8,30.20,SSE,156,4.0,7.0,95,0.00,,,0.00,Wunderground v.1.15,2013-02-22 16:08:00,
2013-02-22 11:10:00,28.0,26.8,30.20,SSE,165,5.0,5.0,95,0.00,,,0.00,Wunderground v.1.15,2013-02-22 16:10:00,
2013-02-22 11:11:00,28.1,26.9,30.20,SE,136,2.0,5.0,95,0.00,,,0.00,Wunderground v.1.15,2013-02-22 16:11:00,
2013-02-22 11:13:00,28.1,26.9,30.20,SE,140,5.0,7.0,95,0.00,,,0.00,Wunderground v.1.15,2013-02-22 16:13:00,
2013-02-22 11:15:00,28.2,27.0,30.21,SE,140,3.0,7.0,95,0.00,,,0.00,Wunderground v.1.15,2013-02-22 16:15:00,
2013-02-22 11:16:00,28.2,27.0,30.21,South,169,2.0,7.0,95,0.00,,,0.00,Wunderground v.1.15,2013-02-22 16:16:00,
2013-02-22 11:18:00,28.3,27.1,30.20,ENE,78,3.0,7.0,95,0.00,,,0.00,Wunderground v.1.15,2013-02-22 16:18:00,
2013-02-22 11:20:00,28.4,27.2,30.20,SSE,159,5.0,8.0,95,0.00,,,0.00,Wunderground v.1.15,2013-02-22 16:20:00,
2013-02-22 11:22:00,28.3,27.1,30.20,SSE,162,4.0,8.0,95,0.00,,,0.00,Wunderground v.1.15,2013-02-22 16:22:00,
2013-02-22 11:23:00,28.3,26.8,30.20,SSE,153,5.0,8.0,94,0.00,,,0.00,Wunderground v.1.15,2013-02-22 16:23:00,
2013-02-22 11:25:00,28.3,27.0,30.20,SSE,159,6.0,10.0,94,0.00,,,0.00,weatherlink.com 1.10,2013-02-22 16:25:00,
2013-02-22 11:27:00,28.4,26.9,30.20,SE,139,6.0,10.0,94,0.00,,,0.00,Wunderground v.1.15,2013-02-22 16:27:00,
2013-02-22 11:28:00,28.4,27.2,30.20,SSE,155,5.0,10.0,95,0.00,,,0.00,Wunderground v.1.15,2013-02-22 16:28:00,
2013-02-22 11:30:00,28.4,27.2,30.20,SE,133,7.0,11.0,95,0.00,,,0.00,Wunderground v.1.15,2013-02-22 16:30:00,
2013-02-22 11:32:00,28.4,26.9,30.20,South,173,7.0,11.0,94,0.00,,,0.00,Wunderground v.1.15,2013-02-22 16:32:00,
2013-02-22 11:33:00,28.4,26.9,30.20,SSE,162,9.0,11.0,94,0.00,,,0.00,Wunderground v.1.15,2013-02-22 16:33:00,
2013-02-22 11:34:00,28.4,26.9,30.20,SSE,162,2.0,11.0,94,0.00,,,0.00,Wunderground v.1.15,2013-02-22 16:34:00,
2013-02-22 11:36:00,28.4,26.9,30.20,SSE,153,5.0,11.0,94,0.00,,,0.00,Wunderground v.1.15,2013-02-22 16:36:00,
2013-02-22 11:37:00,28.5,27.0,30.20,SE,140,2.0,11.0,94,0.00,,,0.00,Wunderground v.1.15,2013-02-22 16:37:00,
2013-02-22 11:38:00,28.5,27.0,30.20,South,169,6.0,11.0,94,0.00,,,0.00,Wunderground v.1.15,2013-02-22 16:38:00,
2013-02-22 11:39:00,28.5,27.0,30.20,SSE,163,6.0,11.0,94,0.00,,,0.00,Wunderground v.1.15,2013-02-22 16:39:00,
2013-02-22 11:41:00,28.6,27.1,30.20,SSE,154,1.0,5.0,94,0.00,,,0.00,Wunderground v.1.15,2013-02-22 16:41:00,
2013-02-22 11:43:00,28.8,27.3,30.19,SE,139,4.0,7.0,94,0.00,,,0.00,Wunderground v.1.15,2013-02-22 16:43:00,
2013-02-22 11:44:00,28.8,27.3,30.20,SSE,155,5.0,7.0,94,0.00,,,0.00,Wunderground v.1.15,2013-02-22 16:44:00,
2013-02-22 11:46:00,28.9,27.4,30.20,ENE,69,4.0,7.0,94,0.00,,,0.00,Wunderground v.1.15,2013-02-22 16:46:00,
2013-02-22 11:48:00,29.0,27.5,30.20,SSE,148,3.0,7.0,94,0.00,,,0.00,Wunderground v.1.15,2013-02-22 16:48:00,
2013-02-22 11:49:00,29.1,27.6,30.20,SSE,164,4.0,8.0,94,0.00,,,0.00,Wunderground v.1.15,2013-02-22 16:49:00,
2013-02-22 11:51:00,29.1,27.6,30.20,SSE,167,5.0,7.0,94,0.00,,,0.00,Wunderground v.1.15,2013-02-22 16:51:00,
2013-02-22 11:53:00,29.0,27.5,30.20,SSE,163,4.0,8.0,94,0.00,,,0.00,Wunderground v.1.15,2013-02-22 16:53:00,
2013-02-22 11:55:00,29.0,27.5,30.20,SE,141,5.0,8.0,94,0.00,,,0.00,Wunderground v.1.15,2013-02-22 16:55:00,
2013-02-22 11:56:00,29.0,27.5,30.20,South,170,6.0,8.0,94,0.00,,,0.00,Wunderground v.1.15,2013-02-22 16:56:00,
2013-02-22 11:58:00,29.0,27.5,30.20,SSE,147,4.0,9.0,94,0.00,,,0.00,Wunderground v.1.15,2013-02-22 16:58:00,
2013-02-22 12:00:00,29.0,27.5,30.20,ESE,118,7.0,7.0,94,0.00,,,0.00,Wunderground v.1.15,2013-02-22 17:00:00,
2013-02-22 12:01:00,29.1,27.6,30.19,SSE,153,2.0,7.0,94,0.00,,,0.00,Wunderground v.1.15,2013-02-22 17:01:00,
2013-02-22 12:04:00,29.2,27.7,30.19,SE,126,1.0,7.0,94,0.00,,,0.00,Wunderground v.1.15,2013-02-22 17:04:00,
2013-02-22 12:05:00,29.3,27.8,30.19,SE,146,3.0,7.0,94,0.00,,,0.00,Wunderground v.1.15,2013-02-22 17:05:00,
2013-02-22 12:07:00,29.3,27.8,30.19,East,88,2.0,7.0,94,0.00,,,0.00,Wunderground v.1.15,2013-02-22 17:07:00,
2013-02-22 12:09:00,29.4,27.9,30.19,SE,136,4.0,7.0,94,0.00,,,0.00,Wunderground v.1.15,2013-02-22 17:09:00,
2013-02-22 12:10:00,29.4,27.9,30.19,SSE,162,3.0,3.0,94,0.00,,,0.00,Wunderground v.1.15,2013-02-22 17:10:00,
2013-02-22 12:11:00,29.4,27.9,30.19,SSE,150,6.0,6.0,94,0.00,,,0.00,Wunderground v.1.15,2013-02-22 17:11:00,
2013-02-22 12:12:00,29.3,27.5,30.19,SSE,163,6.0,7.0,93,0.00,,,0.00,Wunderground v.1.15,2013-02-22 17:12:00,
2013-02-22 12:14:00,29.4,27.6,30.19,ESE,113,9.0,9.0,93,0.00,,,0.00,Wunderground v.1.15,2013-02-22 17:14:00,
2013-02-22 12:15:00,29.4,27.6,30.19,SE,128,4.0,9.0,93,0.00,,,0.00,Wunderground v.1.15,2013-02-22 17:15:00,
2013-02-22 12:16:00,29.4,27.6,30.19,East,84,5.0,9.0,93,0.00,,,0.00,Wunderground v.1.15,2013-02-22 17:16:00,
2013-02-22 12:17:00,29.4,27.6,30.20,SSE,150,4.0,9.0,93,0.00,,,0.00,Wunderground v.1.15,2013-02-22 17:17:00,
2013-02-22 12:19:00,29.4,27.6,30.19,SSE,157,4.0,9.0,93,0.00,,,0.00,Wunderground v.1.15,2013-02-22 17:19:00,
2013-02-22 12:20:00,29.4,27.6,30.19,SE,132,3.0,4.0,93,0.00,,,0.00,Wunderground v.1.15,2013-02-22 17:20:00,
2013-02-22 12:21:00,29.5,27.7,30.19,East,94,2.0,4.0,93,0.00,,,0.00,Wunderground v.1.15,2013-02-22 17:21:00,
2013-02-22 12:22:00,29.6,28.1,30.19,SE,137,1.0,4.0,94,0.00,,,0.00,Wunderground v.1.15,2013-02-22 17:22:00,
2013-02-22 12:24:00,29.7,28.2,30.19,SSE,152,3.0,4.0,94,0.00,,,0.00,Wunderground v.1.15,2013-02-22 17:24:00,
2013-02-22 12:25:00,29.7,28.2,30.18,SE,134,2.0,4.0,94,0.00,,,0.00,Wunderground v.1.15,2013-02-22 17:25:00,
2013-02-22 12:26:00,29.7,28.2,30.18,ESE,110,3.0,4.0,94,0.00,,,0.00,Wunderground v.1.15,2013-02-22 17:26:00,
2013-02-22 12:28:00,29.8,28.0,30.18,ENE,68,2.0,4.0,93,0.00,,,0.00,Wunderground v.1.15,2013-02-22 17:28:00,
2013-02-22 12:30:00,29.9,28.1,30.18,South,171,3.0,3.0,93,0.00,,,0.00,Wunderground v.1.15,2013-02-22 17:30:00,
2013-02-22 12:31:00,29.9,28.1,30.18,East,87,2.0,5.0,93,0.00,,,0.00,Wunderground v.1.15,2013-02-22 17:31:00,
2013-02-22 12:33:00,30.0,28.2,30.18,East,94,5.0,5.0,93,0.00,,,0.00,Wunderground v.1.15,2013-02-22 17:33:00,
2013-02-22 12:35:00,30.0,28.2,30.18,ESE,109,4.0,5.0,93,0.00,,,0.00,Wunderground v.1.15,2013-02-22 17:35:00,
2013-02-22 12:36:00,30.0,28.2,30.18,ENE,74,1.0,5.0,93,0.00,,,0.00,Wunderground v.1.15,2013-02-22 17:36:00,
2013-02-22 12:38:00,30.0,28.2,30.18,SSE,164,4.0,6.0,93,0.00,,,0.00,Wunderground v.1.15,2013-02-22 17:38:00,
2013-02-22 12:40:00,30.0,28.2,30.18,SE,130,2.0,3.0,93,0.00,,,0.00,Wunderground v.1.15,2013-02-22 17:40:00,
2013-02-22 12:41:00,30.0,28.2,30.18,ESE,110,3.0,3.0,93,0.00,,,0.00,Wunderground v.1.15,2013-02-22 17:41:00,
2013-02-22 12:43:00,29.9,28.1,30.18,SE,139,2.0,6.0,93,0.00,,,0.00,Wunderground v.1.15,2013-02-22 17:43:00,
2013-02-22 12:45:00,29.8,28.0,30.18,East,95,7.0,7.0,93,0.00,,,0.00,Wunderground v.1.15,2013-02-22 17:45:00,
2013-02-22 12:46:00,29.7,27.7,30.18,SE,134,6.0,7.0,92,0.00,,,0.00,Wunderground v.1.15,2013-02-22 17:46:00,
2013-02-22 12:47:00,29.6,27.6,30.18,SSE,161,6.0,7.0,92,0.00,,,0.00,Wunderground v.1.15,2013-02-22 17:47:00,
2013-02-22 12:48:00,29.4,27.4,30.18,SSE,165,6.0,9.0,92,0.00,,,0.00,Wunderground v.1.15,2013-02-22 17:48:00,
2013-02-22 12:50:00,29.4,27.4,30.18,SSE,163,4.0,6.0,92,0.00,,,0.00,Wunderground v.1.15,2013-02-22 17:50:00,
2013-02-22 12:51:00,29.3,27.3,30.18,SE,140,2.0,6.0,92,0.00,,,0.00,Wunderground v.1.15,2013-02-22 17:51:00,
2013-02-22 12:52:00,29.3,27.3,30.18,ENE,75,5.0,6.0,92,0.00,,,0.00,Wunderground v.1.15,2013-02-22 17:52:00,
2013-02-22 12:53:00,29.2,27.2,30.18,SSE,162,1.0,6.0,92,0.00,,,0.00,Wunderground v.1.15,2013-02-22 17:53:00,
2013-02-22 12:55:00,29.2,27.4,30.18,ESE,121,2.0,6.0,93,0.00,,,0.00,Wunderground v.1.15,2013-02-22 17:55:00,
2013-02-22 12:57:00,29.2,27.4,30.18,NE,46,5.0,6.0,93,0.00,,,0.00,Wunderground v.1.15,2013-02-22 17:57:00,
2013-02-22 12:59:00,29.2,27.4,30.18,SE,126,4.0,7.0,93,0.00,,,0.00,Wunderground v.1.15,2013-02-22 17:59:00,
2013-02-22 13:01:00,29.1,27.3,30.18,East,82,0.0,3.0,93,0.00,,,0.00,Wunderground v.1.15,2013-02-22 18:01:00,
2013-02-22 13:02:00,29.2,27.4,30.18,ENE,58,2.0,6.0,93,0.00,,,0.00,Wunderground v.1.15,2013-02-22 18:02:00,
2013-02-22 13:03:00,29.1,27.3,30.18,ENE,65,3.0,6.0,93,0.00,,,0.00,Wunderground v.1.15,2013-02-22 18:03:00,
2013-02-22 13:04:00,29.2,27.4,30.18,East,101,3.0,6.0,93,0.00,,,0.00,Wunderground v.1.15,2013-02-22 18:04:00,
2013-02-22 13:06:00,29.2,27.4,30.17,ESE,113,4.0,6.0,93,0.00,,,0.00,Wunderground v.1.15,2013-02-22 18:06:00,
2013-02-22 13:08:00,29.2,27.4,30.17,South,171,5.0,6.0,93,0.00,,,0.00,Wunderground v.1.15,2013-02-22 18:08:00,
2013-02-22 13:09:00,29.3,27.5,30.18,SSE,162,0.0,6.0,93,0.00,,,0.00,Wunderground v.1.15,2013-02-22 18:09:00,
2013-02-22 13:12:00,29.3,27.5,30.18,East,79,2.0,3.0,93,0.00,,,0.01,Wunderground v.1.15,2013-02-22 18:12:00,
2013-02-22 13:13:00,29.3,27.5,30.17,South,172,4.0,4.0,93,0.00,,,0.01,Wunderground v.1.15,2013-02-22 18:13:00,
2013-02-22 13:14:00,29.3,27.5,30.17,ESE,109,3.0,5.0,93,0.00,,,0.01,Wunderground v.1.15,2013-02-22 18:14:00,
2013-02-22 13:17:00,29.4,27.6,30.17,SSE,157,6.0,6.0,93,0.00,,,0.01,Wunderground v.1.15,2013-02-22 18:17:00,
2013-02-22 13:18:00,29.4,27.6,30.17,SE,140,3.0,6.0,93,0.00,,,0.01,Wunderground v.1.15,2013-02-22 18:18:00,
2013-02-22 13:19:00,29.5,27.7,30.17,ENE,72,4.0,6.0,93,0.00,,,0.01,Wunderground v.1.15,2013-02-22 18:19:00,
2013-02-22 13:22:00,29.6,27.8,30.17,SE,137,6.0,8.0,93,0.00,,,0.01,Wunderground v.1.15,2013-02-22 18:22:00,
2013-02-22 13:23:00,29.6,27.8,30.17,ESE,118,8.0,9.0,93,0.00,,,0.01,Wunderground v.1.15,2013-02-22 18:23:00,
2013-02-22 13:25:00,29.6,27.8,30.17,SSE,153,6.0,9.0,93,0.00,,,0.01,Wunderground v.1.15,2013-02-22 18:25:00,
2013-02-22 13:27:00,29.7,27.9,30.16,SE,140,3.0,9.0,93,0.00,,,0.01,Wunderground v.1.15,2013-02-22 18:27:00,
2013-02-22 13:28:00,29.7,27.9,30.16,SSE,164,3.0,9.0,93,0.00,,,0.01,Wunderground v.1.15,2013-02-22 18:28:00,
2013-02-22 13:30:00,29.9,28.1,30.16,South,169,2.0,4.0,93,0.00,,,0.02,Wunderground v.1.15,2013-02-22 18:30:00,
2013-02-22 13:32:00,30.1,28.3,30.16,SE,140,2.0,7.0,93,0.00,,,0.02,Wunderground v.1.15,2013-02-22 18:32:00,
2013-02-22 13:33:00,30.2,28.4,30.16,SE,128,3.0,7.0,93,0.00,,,0.02,Wunderground v.1.15,2013-02-22 18:33:00,
2013-02-22 13:35:00,30.3,28.5,30.16,East,84,3.0,7.0,93,0.00,,,0.02,Wunderground v.1.15,2013-02-22 18:35:00,
2013-02-22 13:38:00,30.6,28.8,30.16,SSE,159,3.0,7.0,93,0.00,,,0.02,Wunderground v.1.15,2013-02-22 18:38:00,
2013-02-22 13:39:00,30.6,28.8,30.16,SSE,153,2.0,7.0,93,0.00,,,0.02,Wunderground v.1.15,2013-02-22 18:39:00,
2013-02-22 13:40:00,30.7,28.7,30.16,East,86,5.0,6.0,92,0.06,,,0.03,Wunderground v.1.15,2013-02-22 18:40:00,
2013-02-22 13:43:00,30.8,28.8,30.16,SE,127,4.0,7.0,92,0.06,,,0.03,Wunderground v.1.15,2013-02-22 18:43:00,
2013-02-22 13:44:00,30.9,28.9,30.16,SSE,150,3.0,7.0,92,0.06,,,0.03,Wunderground v.1.15,2013-02-22 18:44:00,
2013-02-22 13:46:00,30.9,28.9,30.16,SE,134,2.0,7.0,92,0.06,,,0.03,Wunderground v.1.15,2013-02-22 18:46:00,
2013-02-22 13:48:00,31.0,28.7,30.16,ESE,111,3.0,7.0,91,0.06,,,0.03,Wunderground v.1.15,2013-02-22 18:48:00,
2013-02-22 13:49:00,31.1,28.8,30.16,SSE,151,5.0,7.0,91,0.06,,,0.03,Wunderground v.1.15,2013-02-22 18:49:00,
2013-02-22 13:51:00,31.1,28.8,30.16,East,84,2.0,4.0,91,0.06,,,0.04,Wunderground v.1.15,2013-02-22 18:51:00,
2013-02-22 13:53:00,31.2,28.9,30.16,SSE,159,7.0,8.0,91,0.06,,,0.04,Wunderground v.1.15,2013-02-22 18:53:00,
2013-02-22 13:54:00,31.2,28.9,30.16,ESE,123,9.0,9.0,91,0.06,,,0.04,Wunderground v.1.15,2013-02-22 18:54:00,
2013-02-22 13:55:00,31.2,28.9,30.16,SSE,164,7.0,9.0,91,0.06,,,0.04,Wunderground v.1.15,2013-02-22 18:55:00,
2013-02-22 13:56:00,31.2,28.6,30.16,SE,140,4.0,10.0,90,0.06,,,0.04,Wunderground v.1.15,2013-02-22 18:56:00,
2013-02-22 13:59:00,31.2,28.6,30.15,SE,128,3.0,10.0,90,0.07,,,0.05,Wunderground v.1.15,2013-02-22 18:59:00,
2013-02-22 14:00:00,31.2,28.6,30.15,ESE,113,2.0,6.0,90,0.07,,,0.05,Wunderground v.1.15,2013-02-22 19:00:00,
2013-02-22 14:01:00,31.2,28.6,30.15,ENE,67,4.0,7.0,90,0.07,,,0.05,Wunderground v.1.15,2013-02-22 19:01:00,
2013-02-22 14:04:00,31.2,28.6,30.15,ENE,72,4.0,7.0,90,0.07,,,0.05,Wunderground v.1.15,2013-02-22 19:04:00,
2013-02-22 14:05:00,31.3,28.7,30.15,ENE,67,2.0,7.0,90,0.07,,,0.05,Wunderground v.1.15,2013-02-22 19:05:00,
2013-02-22 14:06:00,31.3,29.0,30.15,SSE,160,3.0,7.0,91,0.07,,,0.05,Wunderground v.1.15,2013-02-22 19:06:00,
2013-02-22 14:10:00,31.4,28.8,30.15,South,173,5.0,5.0,90,0.05,,,0.05,Wunderground v.1.15,2013-02-22 19:10:00,
2013-02-22 14:12:00,31.4,28.8,30.15,South,171,3.0,5.0,90,0.05,,,0.05,Wunderground v.1.15,2013-02-22 19:12:00,
2013-02-22 14:15:00,31.3,28.7,30.16,East,85,3.0,7.0,90,0.05,,,0.06,Wunderground v.1.15,2013-02-22 19:15:00,
2013-02-22 14:17:00,31.3,28.7,30.16,SSE,147,1.0,7.0,90,0.05,,,0.06,Wunderground v.1.15,2013-02-22 19:17:00,
2013-02-22 14:20:00,31.3,28.7,30.16,SSE,159,2.0,3.0,90,0.05,,,0.06,Wunderground v.1.15,2013-02-22 19:20:00,
2013-02-22 14:21:00,31.3,28.7,30.16,SE,130,1.0,3.0,90,0.05,,,0.06,Wunderground v.1.15,2013-02-22 19:21:00,
2013-02-22 14:22:00,31.3,28.7,30.15,ESE,103,5.0,5.0,90,0.05,,,0.06,Wunderground v.1.15,2013-02-22 19:22:00,
2013-02-22 14:25:00,31.3,28.7,30.16,ENE,72,4.0,5.0,90,0.05,,,0.07,Wunderground v.1.15,2013-02-22 19:25:00,
2013-02-22 14:26:00,31.3,28.7,30.16,East,96,3.0,5.0,90,0.05,,,0.07,Wunderground v.1.15,2013-02-22 19:26:00,
2013-02-22 14:27:00,31.3,28.4,30.16,SSE,154,3.0,7.0,89,0.05,,,0.07,Wunderground v.1.15,2013-02-22 19:27:00,
2013-02-22 14:30:00,31.3,28.7,30.16,South,175,4.0,4.0,90,0.05,,,0.07,Wunderground v.1.15,2013-02-22 19:30:00,
2013-02-22 14:31:00,31.3,28.7,30.16,South,172,3.0,4.0,90,0.05,,,0.07,Wunderground v.1.15,2013-02-22 19:31:00,
2013-02-22 14:33:00,31.3,28.7,30.15,South,170,5.0,8.0,90,0.05,,,0.07,Wunderground v.1.15,2013-02-22 19:33:00,
2013-02-22 14:36:00,31.3,28.4,30.15,ESE,123,5.0,8.0,89,0.05,,,0.07,Wunderground v.1.15,2013-02-22 19:36:00,
2013-02-22 14:39:00,31.1,28.2,30.15,SE,140,9.0,10.0,89,0.04,,,0.07,Wunderground v.1.15,2013-02-22 19:39:00,
2013-02-22 14:41:00,31.0,28.1,30.15,South,182,3.0,8.0,89,0.04,,,0.07,Wunderground v.1.15,2013-02-22 19:41:00,
2013-02-22 14:42:00,31.0,28.1,30.15,SSE,160,6.0,8.0,89,0.00,,,0.07,Wunderground v.1.15,2013-02-22 19:42:00,
2013-02-22 14:44:00,30.9,28.0,30.15,ESE,111,1.0,8.0,89,0.00,,,0.07,Wunderground v.1.15,2013-02-22 19:44:00,
2013-02-22 14:46:00,31.0,28.4,30.15,ESE,106,3.0,8.0,90,0.00,,,0.07,Wunderground v.1.15,2013-02-22 19:46:00,
2013-02-22 14:47:00,31.0,28.4,30.15,ENE,78,4.0,8.0,90,0.00,,,0.07,Wunderground v.1.15,2013-02-22 19:47:00,
2013-02-22 14:49:00,31.0,28.4,30.15,SE,138,2.0,8.0,90,0.00,,,0.08,Wunderground v.1.15,2013-02-22 19:49:00,
2013-02-22 14:51:00,31.1,28.5,30.15,SE,143,3.0,3.0,90,0.00,,,0.08,Wunderground v.1.15,2013-02-22 19:51:00,
2013-02-22 14:52:00,31.1,28.5,30.15,SE,131,1.0,3.0,90,0.00,,,0.08,Wunderground v.1.15,2013-02-22 19:52:00,
2013-02-22 14:54:00,31.2,28.6,30.15,SE,138,3.0,7.0,90,0.00,,,0.08,Wunderground v.1.15,2013-02-22 19:54:00,
2013-02-22 14:56:00,31.1,28.2,30.14,NE,38,4.0,8.0,89,0.00,,,0.08,Wunderground v.1.15,2013-02-22 19:56:00,
2013-02-22 14:57:00,31.1,28.2,30.14,ENE,78,7.0,8.0,89,0.00,,,0.08,Wunderground v.1.15,2013-02-22 19:57:00,
2013-02-22 15:01:00,31.1,28.5,30.15,NE,53,4.0,5.0,90,0.00,,,0.08,Wunderground v.1.15,2013-02-22 20:01:00,
2013-02-22 15:02:00,31.0,28.1,30.14,ENE,70,1.0,10.0,89,0.00,,,0.08,Wunderground v.1.15,2013-02-22 20:02:00,
2013-02-22 15:06:00,30.9,28.3,30.15,East,79,2.0,10.0,90,0.00,,,0.08,Wunderground v.1.15,2013-02-22 20:06:00,
2013-02-22 15:07:00,30.9,28.3,30.15,South,169,4.0,10.0,90,0.00,,,0.08,Wunderground v.1.15,2013-02-22 20:07:00,
2013-02-22 15:08:00,30.9,28.3,30.15,SSE,167,4.0,10.0,90,0.00,,,0.08,Wunderground v.1.15,2013-02-22 20:08:00,
2013-02-22 15:11:00,30.9,28.3,30.15,SE,144,2.0,7.0,90,0.00,,,0.08,Wunderground v.1.15,2013-02-22 20:11:00,
2013-02-22 15:13:00,30.9,28.3,30.15,East,99,3.0,7.0,90,0.00,,,0.08,Wunderground v.1.15,2013-02-22 20:13:00,
2013-02-22 15:16:00,30.9,28.3,30.15,SE,128,2.0,7.0,90,0.00,,,0.08,Wunderground v.1.15,2013-02-22 20:16:00,
2013-02-22 15:17:00,30.9,28.3,30.15,SE,129,1.0,7.0,90,0.00,,,0.08,Wunderground v.1.15,2013-02-22 20:17:00,
2013-02-22 15:18:00,30.9,28.3,30.15,ESE,110,3.0,7.0,90,0.00,,,0.08,Wunderground v.1.15,2013-02-22 20:18:00,
2013-02-22 15:21:00,31.0,28.4,30.14,SSE,157,3.0,5.0,90,0.00,,,0.09,Wunderground v.1.15,2013-02-22 20:21:00,
2013-02-22 15:23:00,31.0,28.4,30.14,ESE,113,3.0,5.0,90,0.00,,,0.09,Wunderground v.1.15,2013-02-22 20:23:00,
2013-02-22 15:26:00,31.1,28.5,30.14,South,178,2.0,5.0,90,0.00,,,0.09,Wunderground v.1.15,2013-02-22 20:26:00,
2013-02-22 15:28:00,31.2,28.6,30.14,SSE,153,2.0,5.0,90,0.00,,,0.09,Wunderground v.1.15,2013-02-22 20:28:00,
2013-02-22 15:29:00,31.2,28.6,30.14,SSE,153,2.0,5.0,90,0.00,,,0.09,Wunderground v.1.15,2013-02-22 20:29:00,
2013-02-22 15:33:00,31.2,28.6,30.14,South,175,4.0,4.0,90,0.00,,,0.09,Wunderground v.1.15,2013-02-22 20:33:00,
2013-02-22 15:34:00,31.3,28.7,30.14,South,173,2.0,4.0,90,0.00,,,0.09,Wunderground v.1.15,2013-02-22 20:34:00,
2013-02-22 15:38:00,31.4,28.8,30.14,ESE,104,2.0,4.0,90,0.00,,,0.09,Wunderground v.1.15,2013-02-22 20:38:00,
2013-02-22 15:39:00,31.4,28.8,30.14,SSE,149,4.0,4.0,90,0.00,,,0.09,Wunderground v.1.15,2013-02-22 20:39:00,
2013-02-22 15:40:00,31.4,28.8,30.14,SSE,148,2.0,2.0,90,0.00,,,0.09,Wunderground v.1.15,2013-02-22 20:40:00,
2013-02-22 15:43:00,31.5,28.9,30.14,SSE,160,2.0,5.0,90,0.00,,,0.09,Wunderground v.1.15,2013-02-22 20:43:00,
2013-02-22 15:44:00,31.5,28.9,30.14,SSE,155,3.0,5.0,90,0.00,,,0.09,Wunderground v.1.15,2013-02-22 20:44:00,
2013-02-22 15:45:00,31.5,28.9,30.14,SE,142,3.0,5.0,90,0.00,,,0.09,Wunderground v.1.15,2013-02-22 20:45:00,
2013-02-22 15:48:00,31.5,28.9,30.14,NE,50,1.0,5.0,90,0.00,,,0.09,Wunderground v.1.15,2013-02-22 20:48:00,
2013-02-22 15:49:00,31.5,28.9,30.14,ESE,106,1.0,5.0,90,0.00,,,0.09,Wunderground v.1.15,2013-02-22 20:49:00,
2013-02-22 15:50:00,31.5,28.9,30.14,East,101,2.0,3.0,90,0.00,,,0.09,Wunderground v.1.15,2013-02-22 20:50:00,
2013-02-22 15:53:00,31.5,28.9,30.14,ESE,111,3.0,7.0,90,0.00,,,0.09,Wunderground v.1.15,2013-02-22 20:53:00,
2013-02-22 15:55:00,31.4,28.8,30.14,SE,127,2.0,7.0,90,0.00,,,0.09,Wunderground v.1.15,2013-02-22 20:55:00,
2013-02-22 15:58:00,31.2,28.6,30.14,SSE,147,3.0,7.0,90,0.00,,,0.09,Wunderground v.1.15,2013-02-22 20:58:00,
2013-02-22 16:00:00,31.2,28.6,30.14,SSE,150,5.0,5.0,90,0.00,,,0.09,Wunderground v.1.15,2013-02-22 21:00:00,
2013-02-22 16:03:00,31.1,28.5,30.14,East,90,2.0,5.0,90,0.00,,,0.09,Wunderground v.1.15,2013-02-22 21:03:00,
2013-02-22 16:04:00,31.1,28.5,30.14,ENE,65,1.0,5.0,90,0.00,,,0.09,Wunderground v.1.15,2013-02-22 21:04:00,
2013-02-22 16:05:00,31.1,28.5,30.14,SE,130,3.0,6.0,90,0.00,,,0.09,Wunderground v.1.15,2013-02-22 21:05:00,
2013-02-22 16:09:00,31.0,28.4,30.14,SSE,161,3.0,6.0,90,0.00,,,0.09,Wunderground v.1.15,2013-02-22 21:09:00,
2013-02-22 16:10:00,30.9,28.3,30.14,SSE,163,3.0,4.0,90,0.00,,,0.09,Wunderground v.1.15,2013-02-22 21:10:00,
2013-02-22 16:14:00,30.8,28.5,30.14,SSE,165,4.0,6.0,91,0.00,,,0.09,Wunderground v.1.15,2013-02-22 21:14:00,
2013-02-22 16:15:00,30.8,28.5,30.14,SSE,155,5.0,7.0,91,0.00,,,0.09,Wunderground v.1.15,2013-02-22 21:15:00,
2013-02-22 16:16:00,30.8,28.5,30.14,SSE,159,5.0,7.0,91,0.00,,,0.09,Wunderground v.1.15,2013-02-22 21:16:00,
2013-02-22 16:20:00,30.7,28.4,30.14,ENE,57,2.0,3.0,91,0.00,,,0.09,Wunderground v.1.15,2013-02-22 21:20:00,
2013-02-22 16:21:00,30.7,28.4,30.14,ENE,58,1.0,3.0,91,0.00,,,0.09,Wunderground v.1.15,2013-02-22 21:21:00,
2013-02-22 16:25:00,30.7,28.7,30.15,ENE,65,1.0,5.0,92,0.00,,,0.09,Wunderground v.1.15,2013-02-22 21:25:00,
2013-02-22 16:26:00,30.7,28.7,30.15,ENE,60,0.0,5.0,92,0.00,,,0.09,Wunderground v.1.15,2013-02-22 21:26:00,
2013-02-22 16:30:00,30.7,28.7,30.15,East,81,1.0,1.0,92,0.00,,,0.09,Wunderground v.1.15,2013-02-22 21:30:00,
2013-02-22 16:31:00,30.7,28.7,30.15,ESE,102,1.0,1.0,92,0.00,,,0.09,Wunderground v.1.15,2013-02-22 21:31:00,
2013-02-22 16:35:00,30.7,28.7,30.15,SSE,152,0.0,2.0,92,0.00,,,0.09,Wunderground v.1.15,2013-02-22 21:35:00,
2013-02-22 16:36:00,30.7,28.7,30.15,SSE,152,0.0,2.0,92,0.00,,,0.09,Wunderground v.1.15,2013-02-22 21:36:00,
2013-02-22 16:37:00,30.7,28.7,30.15,SSE,161,0.0,2.0,92,0.00,,,0.09,Wunderground v.1.15,2013-02-22 21:37:00,
2013-02-22 16:40:00,30.6,28.6,30.15,SSE,152,2.0,2.0,92,0.00,,,0.09,Wunderground v.1.15,2013-02-22 21:40:00,
2013-02-22 16:41:00,30.6,28.6,30.15,SSE,147,0.0,2.0,92,0.00,,,0.09,Wunderground v.1.15,2013-02-22 21:41:00,
2013-02-22 16:42:00,30.5,28.5,30.16,SSE,150,1.0,2.0,92,0.00,,,0.09,Wunderground v.1.15,2013-02-22 21:42:00,
2013-02-22 16:46:00,30.4,28.4,30.15,South,178,1.0,2.0,92,0.00,,,0.09,Wunderground v.1.15,2013-02-22 21:46:00,
2013-02-22 16:47:00,30.4,28.4,30.15,South,178,2.0,2.0,92,0.00,,,0.09,Wunderground v.1.15,2013-02-22 21:47:00,
2013-02-22 16:48:00,30.3,28.3,30.14,SE,136,2.0,3.0,92,0.00,,,0.09,Wunderground v.1.15,2013-02-22 21:48:00,
2013-02-22 16:51:00,30.4,28.4,30.14,SE,145,3.0,5.0,92,0.00,,,0.09,Wunderground v.1.15,2013-02-22 21:51:00,
2013-02-22 16:52:00,30.4,28.4,30.14,South,170,2.0,5.0,92,0.00,,,0.09,Wunderground v.1.15,2013-02-22 21:52:00,
2013-02-22 16:53:00,30.4,28.4,30.14,South,173,3.0,5.0,92,0.00,,,0.09,Wunderground v.1.15,2013-02-22 21:53:00,
2013-02-22 16:57:00,30.4,28.6,30.15,South,176,2.0,5.0,93,0.00,,,0.09,Wunderground v.1.15,2013-02-22 21:57:00,
2013-02-22 16:58:00,30.4,28.6,30.14,South,176,1.0,5.0,93,0.00,,,0.09,Wunderground v.1.15,2013-02-22 21:58:00,
2013-02-22 17:02:00,30.5,28.7,30.14,ESE,113,0.0,2.0,93,0.00,,,0.09,Wunderground v.1.15,2013-02-22 22:02:00,
2013-02-22 17:03:00,30.5,28.7,30.15,ESE,113,1.0,2.0,93,0.00,,,0.09,Wunderground v.1.15,2013-02-22 22:03:00,
2013-02-22 17:04:00,30.5,28.7,30.14,SSE,151,1.0,3.0,93,0.00,,,0.09,Wunderground v.1.15,2013-02-22 22:04:00,
2013-02-22 17:07:00,30.5,28.7,30.15,ESE,108,0.0,3.0,93,0.00,,,0.09,Wunderground v.1.15,2013-02-22 22:07:00,
2013-02-22 17:08:00,30.5,28.7,30.15,ESE,108,1.0,3.0,93,0.00,,,0.09,Wunderground v.1.15,2013-02-22 22:08:00,
2013-02-22 17:09:00,30.5,28.7,30.15,ESE,114,3.0,3.0,93,0.00,,,0.09,Wunderground v.1.15,2013-02-22 22:09:00,
2013-02-22 17:13:00,30.4,28.6,30.14,SSE,156,4.0,6.0,93,0.00,,,0.09,Wunderground v.1.15,2013-02-22 22:13:00,
2013-02-22 17:14:00,30.4,28.6,30.14,ENE,77,2.0,6.0,93,0.00,,,0.09,Wunderground v.1.15,2013-02-22 22:14:00,
2013-02-22 17:18:00,30.3,28.5,30.14,ENE,72,3.0,6.0,93,0.00,,,0.09,Wunderground v.1.15,2013-02-22 22:18:00,
2013-02-22 17:19:00,30.3,28.5,30.13,ENE,68,3.0,6.0,93,0.00,,,0.09,Wunderground v.1.15,2013-02-22 22:19:00,
2013-02-22 17:23:00,30.3,28.5,30.13,East,90,3.0,8.0,93,0.00,,,0.09,Wunderground v.1.15,2013-02-22 22:23:00,
2013-02-22 17:24:00,30.3,28.5,30.13,ESE,107,2.0,8.0,93,0.00,,,0.09,Wunderground v.1.15,2013-02-22 22:24:00,
2013-02-22 17:29:00,30.3,28.8,30.13,SE,136,3.0,8.0,94,0.00,,,0.09,Wunderground v.1.15,2013-02-22 22:29:00,
2013-02-22 17:34:00,30.3,28.8,30.12,ENE,68,2.0,6.0,94,0.00,,,0.09,Wunderground v.1.15,2013-02-22 22:34:00,
2013-02-22 17:35:00,30.3,28.8,30.13,NE,55,3.0,6.0,94,0.00,,,0.09,Wunderground v.1.15,2013-02-22 22:35:00,
2013-02-22 17:40:00,30.2,28.7,30.12,East,101,2.0,3.0,94,0.00,,,0.09,Wunderground v.1.15,2013-02-22 22:40:00,
2013-02-22 17:45:00,30.2,28.7,30.14,South,169,3.0,5.0,94,0.00,,,0.09,Wunderground v.1.15,2013-02-22 22:45:00,
2013-02-22 17:50:00,30.2,28.7,30.14,SSW,203,2.0,2.0,94,0.00,,,0.09,Wunderground v.1.15,2013-02-22 22:50:00,
2013-02-22 17:51:00,30.2,28.7,30.14,South,185,1.0,2.0,94,0.00,,,0.09,Wunderground v.1.15,2013-02-22 22:51:00,
2013-02-22 17:55:00,30.2,28.7,30.14,SSE,163,0.0,5.0,94,0.00,,,0.09,Wunderground v.1.15,2013-02-22 22:55:00,
2013-02-22 17:56:00,30.2,28.7,30.14,South,182,2.0,5.0,94,0.00,,,0.09,Wunderground v.1.15,2013-02-22 22:56:00,
2013-02-22 18:00:00,30.2,28.7,30.15,East,85,1.0,2.0,94,0.00,,,0.09,Wunderground v.1.15,2013-02-22 23:00:00,
2013-02-22 18:01:00,30.2,28.7,30.15,East,85,3.0,3.0,94,0.00,,,0.09,Wunderground v.1.15,2013-02-22 23:01:00,
2013-02-22 18:06:00,30.3,28.8,30.14,SSE,149,4.0,5.0,94,0.00,,,0.09,Wunderground v.1.15,2013-02-22 23:06:00,
2013-02-22 18:11:00,30.2,28.7,30.14,SSE,153,7.0,8.0,94,0.00,,,0.09,Wunderground v.1.15,2013-02-22 23:11:00,
2013-02-22 18:12:00,30.2,28.7,30.13,SSE,159,6.0,8.0,94,0.00,,,0.09,Wunderground v.1.15,2013-02-22 23:12:00,
2013-02-22 18:16:00,30.1,28.6,30.14,SSE,151,4.0,8.0,94,0.00,,,0.09,Wunderground v.1.15,2013-02-22 23:16:00,
2013-02-22 18:17:00,30.1,28.6,30.14,East,92,3.0,8.0,94,0.00,,,0.09,Wunderground v.1.15,2013-02-22 23:17:00,
2013-02-22 18:21:00,29.9,28.4,30.14,East,94,5.0,5.0,94,0.00,,,0.09,Wunderground v.1.15,2013-02-22 23:21:00,
2013-02-22 18:22:00,29.9,28.4,30.14,SE,136,3.0,5.0,94,0.00,,,0.09,Wunderground v.1.15,2013-02-22 23:22:00,
2013-02-22 18:26:00,29.9,28.4,30.14,SSE,164,4.0,5.0,94,0.00,,,0.09,Wunderground v.1.15,2013-02-22 23:26:00,
2013-02-22 18:27:00,29.9,28.4,30.14,SE,135,1.0,5.0,94,0.00,,,0.09,Wunderground v.1.15,2013-02-22 23:27:00,
2013-02-22 18:31:00,29.9,28.4,30.14,SSE,150,5.0,6.0,94,0.00,,,0.09,Wunderground v.1.15,2013-02-22 23:31:00,
2013-02-22 18:32:00,29.9,28.4,30.14,South,173,4.0,6.0,94,0.00,,,0.09,Wunderground v.1.15,2013-02-22 23:32:00,
2013-02-22 18:36:00,29.8,28.3,30.14,SSE,160,2.0,6.0,94,0.00,,,0.09,Wunderground v.1.15,2013-02-22 23:36:00,
2013-02-22 18:37:00,29.8,28.3,30.14,SSE,163,4.0,6.0,94,0.00,,,0.09,Wunderground v.1.15,2013-02-22 23:37:00,
2013-02-22 18:42:00,29.8,28.3,30.14,SSE,167,5.0,7.0,94,0.00,,,0.09,Wunderground v.1.15,2013-02-22 23:42:00,
2013-02-22 18:43:00,29.8,28.3,30.14,South,180,4.0,7.0,94,0.00,,,0.09,Wunderground v.1.15,2013-02-22 23:43:00,
2013-02-22 18:47:00,29.7,28.0,30.14,SSE,161,3.0,8.0,94,0.00,,,0.09,weatherlink.com 1.10,2013-02-22 23:47:00,
2013-02-22 18:48:00,29.7,28.2,30.14,SSE,159,4.0,7.0,94,0.00,,,0.09,Wunderground v.1.15,2013-02-22 23:48:00,
2013-02-22 18:52:00,29.7,28.2,30.14,ESE,105,2.0,5.0,94,0.00,,,0.09,Wunderground v.1.15,2013-02-22 23:52:00,
2013-02-22 18:53:00,29.7,28.2,30.14,East,99,2.0,5.0,94,0.00,,,0.09,Wunderground v.1.15,2013-02-22 23:53:00,
2013-02-22 18:57:00,29.7,28.2,30.14,East,83,2.0,5.0,94,0.00,,,0.09,Wunderground v.1.15,2013-02-22 23:57:00,
2013-02-22 18:58:00,29.7,28.2,30.14,East,80,1.0,5.0,94,0.00,,,0.09,Wunderground v.1.15,2013-02-22 23:58:00,
2013-02-22 18:59:00,29.7,28.2,30.14,ESE,104,2.0,5.0,94,0.00,,,0.09,Wunderground v.1.15,2013-02-22 23:59:00,
2013-02-22 19:02:00,29.8,28.3,30.14,South,174,3.0,4.0,94,0.00,,,0.09,Wunderground v.1.15,2013-02-23 00:02:00,
2013-02-22 19:03:00,29.8,28.3,30.14,SSE,148,3.0,6.0,94,0.00,,,0.09,Wunderground v.1.15,2013-02-23 00:03:00,
2013-02-22 19:04:00,29.8,28.3,30.14,SSE,155,4.0,6.0,94,0.00,,,0.09,Wunderground v.1.15,2013-02-23 00:04:00,
2013-02-22 19:08:00,29.8,28.3,30.14,ENE,73,2.0,6.0,94,0.00,,,0.09,Wunderground v.1.15,2013-02-23 00:08:00,
2013-02-22 19:09:00,29.8,28.3,30.14,East,80,3.0,6.0,94,0.00,,,0.09,Wunderground v.1.15,2013-02-23 00:09:00,
2013-02-22 19:13:00,29.8,28.3,30.13,ESE,123,2.0,3.0,94,0.00,,,0.09,Wunderground v.1.15,2013-02-23 00:13:00,
2013-02-22 19:14:00,29.8,28.3,30.13,ESE,123,1.0,3.0,94,0.00,,,0.09,Wunderground v.1.15,2013-02-23 00:14:00,
2013-02-22 19:18:00,29.8,28.3,30.13,SE,136,1.0,4.0,94,0.00,,,0.09,Wunderground v.1.15,2013-02-23 00:18:00,
2013-02-22 19:19:00,29.8,28.3,30.13,SSE,147,2.0,4.0,94,0.00,,,0.09,Wunderground v.1.15,2013-02-23 00:19:00,
2013-02-22 19:24:00,29.8,28.3,30.13,SE,144,5.0,8.0,94,0.00,,,0.09,Wunderground v.1.15,2013-02-23 00:24:00,
2013-02-22 19:25:00,29.8,28.3,30.13,South,179,2.0,8.0,94,0.00,,,0.09,Wunderground v.1.15,2013-02-23 00:25:00,
2013-02-22 19:29:00,29.8,28.3,30.13,ENE,68,2.0,8.0,94,0.00,,,0.09,Wunderground v.1.15,2013-02-23 00:29:00,
2013-02-22 19:30:00,29.8,28.3,30.13,SE,144,2.0,4.0,94,0.00,,,0.09,Wunderground v.1.15,2013-02-23 00:30:00,
2013-02-22 19:34:00,29.8,28.3,30.13,ESE,112,2.0,5.0,94,0.00,,,0.09,Wunderground v.1.15,2013-02-23 00:34:00,
2013-02-22 19:35:00,29.8,28.3,30.13,ESE,111,1.0,5.0,94,0.00,,,0.09,Wunderground v.1.15,2013-02-23 00:35:00,
2013-02-22 19:39:00,29.8,28.3,30.13,SE,140,2.0,6.0,94,0.00,,,0.09,Wunderground v.1.15,2013-02-23 00:39:00,
2013-02-22 19:40:00,29.8,28.3,30.13,East,87,3.0,3.0,94,0.00,,,0.09,Wunderground v.1.15,2013-02-23 00:40:00,
2013-02-22 19:44:00,29.8,28.3,30.13,SSE,158,5.0,6.0,94,0.00,,,0.09,Wunderground v.1.15,2013-02-23 00:44:00,
2013-02-22 19:45:00,29.8,28.3,30.13,SSE,155,4.0,6.0,94,0.00,,,0.09,Wunderground v.1.15,2013-02-23 00:45:00,
2013-02-22 19:49:00,29.8,28.3,30.13,SSE,165,4.0,6.0,94,0.00,,,0.09,Wunderground v.1.15,2013-02-23 00:49:00,
2013-02-22 19:50:00,29.8,28.3,30.13,SSE,157,4.0,6.0,94,0.00,,,0.09,Wunderground v.1.15,2013-02-23 00:50:00,
2013-02-22 19:51:00,29.8,28.3,30.13,SE,144,1.0,6.0,94,0.00,,,0.09,Wunderground v.1.15,2013-02-23 00:51:00,
2013-02-22 19:54:00,29.8,28.3,30.13,South,170,4.0,6.0,94,0.00,,,0.09,Wunderground v.1.15,2013-02-23 00:54:00,
2013-02-22 19:55:00,29.8,28.3,30.13,SSE,154,4.0,6.0,94,0.00,,,0.09,Wunderground v.1.15,2013-02-23 00:55:00,
2013-02-22 19:56:00,29.8,28.3,30.13,SSE,154,2.0,6.0,94,0.00,,,0.09,Wunderground v.1.15,2013-02-23 00:56:00,
2013-02-22 19:59:00,29.8,28.3,30.13,SSE,162,4.0,6.0,94,0.00,,,0.09,Wunderground v.1.15,2013-02-23 00:59:00,
2013-02-22 20:00:00,29.8,28.3,30.14,SSE,150,2.0,5.0,94,0.00,,,0.09,Wunderground v.1.15,2013-02-23 01:00:00,
2013-02-22 20:01:00,29.7,28.2,30.14,SSE,157,2.0,5.0,94,0.00,,,0.09,Wunderground v.1.15,2013-02-23 01:01:00,
2013-02-22 20:05:00,29.7,28.2,30.13,South,177,4.0,7.0,94,0.00,,,0.09,Wunderground v.1.15,2013-02-23 01:05:00,
2013-02-22 20:06:00,29.7,28.2,30.14,SSE,155,8.0,8.0,94,0.00,,,0.09,Wunderground v.1.15,2013-02-23 01:06:00,
2013-02-22 20:07:00,29.7,28.4,30.13,SSE,157,4.0,8.0,95,0.00,,,0.09,Wunderground v.1.15,2013-02-23 01:07:00,
2013-02-22 20:10:00,29.7,28.4,30.13,SSE,164,5.0,7.0,95,0.00,,,0.09,Wunderground v.1.15,2013-02-23 01:10:00,
2013-02-22 20:11:00,29.7,28.4,30.12,SSE,157,6.0,7.0,95,0.00,,,0.09,Wunderground v.1.15,2013-02-23 01:11:00,
2013-02-22 20:12:00,29.7,28.4,30.12,SE,126,6.0,7.0,95,0.00,,,0.09,Wunderground v.1.15,2013-02-23 01:12:00,
2013-02-22 20:15:00,29.6,28.1,30.12,SE,146,3.0,8.0,94,0.00,,,0.09,Wunderground v.1.15,2013-02-23 01:15:00,
2013-02-22 20:17:00,29.5,28.2,30.12,SSE,158,2.0,8.0,95,0.00,,,0.09,Wunderground v.1.15,2013-02-23 01:17:00,
2013-02-22 20:20:00,29.5,28.0,30.12,ENE,73,1.0,5.0,94,0.00,,,0.09,Wunderground v.1.15,2013-02-23 01:20:00,
2013-02-22 20:22:00,29.5,28.0,30.12,South,178,4.0,8.0,94,0.00,,,0.09,Wunderground v.1.15,2013-02-23 01:22:00,
2013-02-22 20:26:00,29.5,28.2,30.12,SSE,159,4.0,8.0,95,0.00,,,0.09,Wunderground v.1.15,2013-02-23 01:26:00,
2013-02-22 20:27:00,29.5,28.2,30.11,SSE,168,6.0,8.0,95,0.00,,,0.09,Wunderground v.1.15,2013-02-23 01:27:00,
2013-02-22 20:31:00,29.5,28.2,30.12,SSE,152,0.0,4.0,95,0.00,,,0.09,Wunderground v.1.15,2013-02-23 01:31:00,
2013-02-22 20:32:00,29.5,28.2,30.12,ESE,113,1.0,5.0,95,0.00,,,0.09,Wunderground v.1.15,2013-02-23 01:32:00,
2013-02-22 20:33:00,29.5,28.2,30.12,ESE,109,1.0,5.0,95,0.00,,,0.09,Wunderground v.1.15,2013-02-23 01:33:00,
2013-02-22 20:37:00,29.5,28.2,30.13,South,184,1.0,5.0,95,0.00,,,0.09,Wunderground v.1.15,2013-02-23 01:37:00,
2013-02-22 20:38:00,29.5,28.2,30.13,South,178,4.0,5.0,95,0.00,,,0.09,Wunderground v.1.15,2013-02-23 01:38:00,
2013-02-22 20:42:00,29.5,28.2,30.13,South,175,5.0,8.0,95,0.00,,,0.09,Wunderground v.1.15,2013-02-23 01:42:00,
2013-02-22 20:43:00,29.4,28.1,30.13,South,169,5.0,8.0,95,0.00,,,0.09,Wunderground v.1.15,2013-02-23 01:43:00,
2013-02-22 20:47:00,29.4,28.1,30.13,SE,138,4.0,8.0,95,0.00,,,0.09,Wunderground v.1.15,2013-02-23 01:47:00,
2013-02-22 20:48:00,29.4,28.1,30.13,SSE,148,4.0,8.0,95,0.00,,,0.09,Wunderground v.1.15,2013-02-23 01:48:00,
2013-02-22 20:53:00,29.3,28.0,30.13,SSE,151,7.0,8.0,95,0.00,,,0.10,Wunderground v.1.15,2013-02-23 01:53:00,
2013-02-22 20:58:00,29.3,28.0,30.11,SSE,155,6.0,10.0,95,0.00,,,0.10,Wunderground v.1.15,2013-02-23 01:58:00,
2013-02-22 21:00:00,29.3,28.0,30.11,SSE,159,3.0,6.0,95,0.00,,,0.10,Wunderground v.1.15,2013-02-23 02:00:00,
2013-02-22 21:03:00,29.3,28.0,30.11,ENE,69,4.0,6.0,95,0.00,,,0.10,Wunderground v.1.15,2013-02-23 02:03:00,
2013-02-22 21:04:00,29.3,28.0,30.11,East,101,3.0,7.0,95,0.00,,,0.10,Wunderground v.1.15,2013-02-23 02:04:00,
2013-02-22 21:05:00,29.3,28.0,30.11,SE,126,2.0,7.0,95,0.00,,,0.10,Wunderground v.1.15,2013-02-23 02:05:00,
2013-02-22 21:08:00,29.3,28.0,30.11,East,80,2.0,7.0,95,0.00,,,0.10,Wunderground v.1.15,2013-02-23 02:08:00,
2013-02-22 21:09:00,29.3,28.0,30.12,ENE,69,1.0,7.0,95,0.00,,,0.10,Wunderground v.1.15,2013-02-23 02:09:00,
2013-02-22 21:10:00,29.3,28.0,30.13,ENE,63,0.0,2.0,95,0.00,,,0.10,Wunderground v.1.15,2013-02-23 02:10:00,
2013-02-22 21:13:00,29.3,28.0,30.13,SE,137,4.0,5.0,95,0.00,,,0.10,Wunderground v.1.15,2013-02-23 02:13:00,
2013-02-22 21:14:00,29.3,28.0,30.13,SE,138,1.0,5.0,95,0.00,,,0.10,Wunderground v.1.15,2013-02-23 02:14:00,
2013-02-22 21:15:00,29.3,28.0,30.13,SSE,153,3.0,5.0,95,0.00,,,0.10,Wunderground v.1.15,2013-02-23 02:15:00,
2013-02-22 21:18:00,29.4,28.1,30.13,SE,127,2.0,5.0,95,0.00,,,0.10,Wunderground v.1.15,2013-02-23 02:18:00,
2013-02-22 21:19:00,29.4,28.1,30.13,East,96,2.0,5.0,95,0.00,,,0.10,Wunderground v.1.15,2013-02-23 02:19:00,
2013-02-22 21:20:00,29.4,28.1,30.13,East,98,5.0,6.0,95,0.00,,,0.10,Wunderground v.1.15,2013-02-23 02:20:00,
2013-02-22 21:23:00,29.4,28.1,30.13,NE,43,2.0,6.0,95,0.00,,,0.10,Wunderground v.1.15,2013-02-23 02:23:00,
2013-02-22 21:24:00,29.4,28.1,30.12,NE,55,3.0,6.0,95,0.00,,,0.10,Wunderground v.1.15,2013-02-23 02:24:00,
2013-02-22 21:25:00,29.4,28.1,30.12,East,83,2.0,6.0,95,0.00,,,0.10,Wunderground v.1.15,2013-02-23 02:25:00,
2013-02-22 21:28:00,29.5,28.2,30.12,ESE,123,3.0,7.0,95,0.00,,,0.10,Wunderground v.1.15,2013-02-23 02:28:00,
2013-02-22 21:29:00,29.5,28.2,30.11,ESE,114,3.0,7.0,95,0.00,,,0.10,Wunderground v.1.15,2013-02-23 02:29:00,
2013-02-22 21:30:00,29.5,28.2,30.11,SE,137,3.0,4.0,95,0.00,,,0.10,Wunderground v.1.15,2013-02-23 02:30:00,
2013-02-22 21:33:00,29.6,28.3,30.10,South,171,6.0,10.0,95,0.00,,,0.10,Wunderground v.1.15,2013-02-23 02:33:00,
2013-02-22 21:34:00,29.6,28.3,30.10,SSE,158,4.0,10.0,95,0.00,,,0.10,Wunderground v.1.15,2013-02-23 02:34:00,
2013-02-22 21:35:00,29.6,28.3,30.10,SE,140,10.0,10.0,95,0.00,,,0.10,Wunderground v.1.15,2013-02-23 02:35:00,
2013-02-22 21:36:00,29.6,28.3,30.10,SSE,155,6.0,10.0,95,0.00,,,0.10,Wunderground v.1.15,2013-02-23 02:36:00,
2013-02-22 21:38:00,29.6,28.3,30.10,ESE,108,2.0,10.0,95,0.00,,,0.10,Wunderground v.1.15,2013-02-23 02:38:00,
2013-02-22 21:39:00,29.6,28.3,30.11,SE,133,4.0,10.0,95,0.00,,,0.10,Wunderground v.1.15,2013-02-23 02:39:00,
2013-02-22 21:40:00,29.7,28.4,30.11,South,179,4.0,5.0,95,0.00,,,0.10,Wunderground v.1.15,2013-02-23 02:40:00,
2013-02-22 21:41:00,29.7,28.4,30.11,SSE,163,5.0,5.0,95,0.00,,,0.10,Wunderground v.1.15,2013-02-23 02:41:00,
2013-02-22 21:44:00,29.7,28.4,30.12,SSE,165,5.0,6.0,95,0.00,,,0.10,Wunderground v.1.15,2013-02-23 02:44:00,
2013-02-22 21:46:00,29.7,28.4,30.11,South,172,5.0,6.0,95,0.00,,,0.10,Wunderground v.1.15,2013-02-23 02:46:00,
2013-02-22 21:49:00,29.7,28.4,30.11,South,177,8.0,8.0,95,0.00,,,0.10,Wunderground v.1.15,2013-02-23 02:49:00,
2013-02-22 21:50:00,29.7,28.4,30.11,SSE,163,6.0,7.0,95,0.00,,,0.10,Wunderground v.1.15,2013-02-23 02:50:00,
2013-02-22 21:51:00,29.7,28.4,30.11,South,182,4.0,10.0,95,0.00,,,0.10,Wunderground v.1.15,2013-02-23 02:51:00,
2013-02-22 21:54:00,29.7,28.4,30.12,South,172,9.0,10.0,95,0.00,,,0.10,Wunderground v.1.15,2013-02-23 02:54:00,
2013-02-22 21:55:00,29.6,28.3,30.12,SSE,161,6.0,10.0,95,0.00,,,0.10,Wunderground v.1.15,2013-02-23 02:55:00,
2013-02-22 21:56:00,29.6,28.3,30.12,SSE,156,7.0,10.0,95,0.00,,,0.10,Wunderground v.1.15,2013-02-23 02:56:00,
2013-02-22 21:59:00,29.5,28.2,30.12,ESE,121,2.0,10.0,95,0.00,,,0.10,Wunderground v.1.15,2013-02-23 02:59:00,
2013-02-22 22:00:00,29.5,28.2,30.12,South,180,2.0,5.0,95,0.00,,,0.10,Wunderground v.1.15,2013-02-23 03:00:00,
2013-02-22 22:01:00,29.5,28.2,30.12,SSE,147,6.0,6.0,95,0.00,,,0.10,Wunderground v.1.15,2013-02-23 03:01:00,
2013-02-22 22:02:00,29.5,28.2,30.12,SE,130,5.0,6.0,95,0.00,,,0.10,Wunderground v.1.15,2013-02-23 03:02:00,
2013-02-22 22:05:00,29.4,28.1,30.13,SE,141,2.0,6.0,95,0.00,,,0.10,Wunderground v.1.15,2013-02-23 03:05:00,
2013-02-22 22:07:00,29.4,28.1,30.14,SSE,156,3.0,6.0,95,0.00,,,0.10,Wunderground v.1.15,2013-02-23 03:07:00,
2013-02-22 22:10:00,29.3,28.0,30.13,SSE,155,4.0,4.0,95,0.00,,,0.10,Wunderground v.1.15,2013-02-23 03:10:00,
2013-02-22 22:11:00,29.3,28.0,30.13,SSE,150,6.0,6.0,95,0.00,,,0.10,Wunderground v.1.15,2013-02-23 03:11:00,
2013-02-22 22:12:00,29.3,28.0,30.13,East,79,3.0,6.0,95,0.00,,,0.10,Wunderground v.1.15,2013-02-23 03:12:00,
2013-02-22 22:16:00,29.4,28.1,30.14,SE,134,5.0,8.0,95,0.00,,,0.10,Wunderground v.1.15,2013-02-23 03:16:00,
2013-02-22 22:17:00,29.4,28.1,30.13,SSE,148,2.0,8.0,95,0.00,,,0.10,Wunderground v.1.15,2013-02-23 03:17:00,
2013-02-22 22:22:00,29.4,28.1,30.13,SE,124,4.0,5.0,95,0.00,,,0.10,Wunderground v.1.15,2013-02-23 03:22:00,
2013-02-22 22:27:00,29.5,28.2,30.13,ESE,118,3.0,7.0,95,0.00,,,0.10,Wunderground v.1.15,2013-02-23 03:27:00,
2013-02-22 22:28:00,29.4,28.1,30.13,East,80,2.0,7.0,95,0.00,,,0.10,Wunderground v.1.15,2013-02-23 03:28:00,
2013-02-22 22:32:00,29.6,28.3,30.13,SE,136,0.0,5.0,95,0.00,,,0.10,Wunderground v.1.15,2013-02-23 03:32:00,
2013-02-22 22:33:00,29.6,28.3,30.13,SSE,163,3.0,5.0,95,0.00,,,0.10,Wunderground v.1.15,2013-02-23 03:33:00,
2013-02-22 22:35:00,29.6,28.3,30.13,SSE,163,6.0,6.0,95,0.00,,,0.10,Wunderground v.1.15,2013-02-23 03:35:00,
2013-02-22 22:37:00,29.6,28.3,30.13,SSE,161,8.0,8.0,95,0.00,,,0.10,Wunderground v.1.15,2013-02-23 03:37:00,
2013-02-22 22:38:00,29.6,28.3,30.13,SE,124,2.0,9.0,95,0.00,,,0.10,Wunderground v.1.15,2013-02-23 03:38:00,
2013-02-22 22:40:00,29.6,28.3,30.12,SSE,163,4.0,5.0,95,0.00,,,0.10,Wunderground v.1.15,2013-02-23 03:40:00,
2013-02-22 22:42:00,29.6,28.3,30.12,SSE,153,1.0,5.0,95,0.00,,,0.10,Wunderground v.1.15,2013-02-23 03:42:00,
2013-02-22 22:43:00,29.6,28.3,30.12,ESE,102,3.0,6.0,95,0.00,,,0.10,Wunderground v.1.15,2013-02-23 03:43:00,
2013-02-22 22:46:00,29.6,28.3,30.13,ESE,113,3.0,6.0,95,0.00,,,0.10,Wunderground v.1.15,2013-02-23 03:46:00,
2013-02-22 22:48:00,29.6,28.3,30.12,ESE,112,4.0,6.0,95,0.00,,,0.10,Wunderground v.1.15,2013-02-23 03:48:00,
2013-02-22 22:49:00,29.5,28.2,30.13,ESE,109,1.0,6.0,95,0.00,,,0.10,Wunderground v.1.15,2013-02-23 03:49:00,
2013-02-22 22:51:00,29.6,28.3,30.13,SE,124,3.0,3.0,95,0.00,,,0.10,Wunderground v.1.15,2013-02-23 03:51:00,
2013-02-22 22:53:00,29.6,28.3,30.12,SE,138,3.0,4.0,95,0.00,,,0.10,Wunderground v.1.15,2013-02-23 03:53:00,
2013-02-22 22:54:00,29.6,28.3,30.12,East,97,2.0,4.0,95,0.00,,,0.10,Wunderground v.1.15,2013-02-23 03:54:00,
2013-02-22 22:56:00,29.6,28.3,30.12,East,82,2.0,4.0,95,0.00,,,0.10,Wunderground v.1.15,2013-02-23 03:56:00,
2013-02-22 22:58:00,29.6,28.3,30.11,East,79,3.0,5.0,95,0.00,,,0.10,Wunderground v.1.15,2013-02-23 03:58:00,
2013-02-22 22:59:00,29.6,28.3,30.11,NE,55,2.0,5.0,95,0.00,,,0.10,Wunderground v.1.15,2013-02-23 03:59:00,
2013-02-22 23:01:00,29.6,28.3,30.11,SSE,157,2.0,3.0,95,0.00,,,0.10,Wunderground v.1.15,2013-02-23 04:01:00,
2013-02-22 23:03:00,29.6,28.3,30.12,SSE,155,0.0,3.0,95,0.00,,,0.10,Wunderground v.1.15,2013-02-23 04:03:00,
2013-02-22 23:04:00,29.6,28.3,30.12,SSE,155,1.0,3.0,95,0.00,,,0.10,Wunderground v.1.15,2013-02-23 04:04:00,
2013-02-22 23:06:00,29.7,28.7,30.11,East,81,1.0,5.0,96,0.00,,,0.10,Wunderground v.1.15,2013-02-23 04:06:00,
2013-02-22 23:08:00,29.7,28.7,30.11,East,92,3.0,5.0,96,0.00,,,0.10,Wunderground v.1.15,2013-02-23 04:08:00,
2013-02-22 23:09:00,29.7,28.7,30.11,East,84,3.0,5.0,96,0.00,,,0.10,Wunderground v.1.15,2013-02-23 04:09:00,
2013-02-22 23:12:00,29.7,28.7,30.10,East,85,1.0,5.0,96,0.00,,,0.10,Wunderground v.1.15,2013-02-23 04:12:00,
2013-02-22 23:13:00,29.7,28.7,30.10,East,88,5.0,7.0,96,0.00,,,0.10,Wunderground v.1.15,2013-02-23 04:13:00,
2013-02-22 23:14:00,29.8,28.8,30.10,East,94,6.0,7.0,96,0.00,,,0.10,Wunderground v.1.15,2013-02-23 04:14:00,
2013-02-22 23:18:00,29.7,28.7,30.09,ESE,103,2.0,7.0,96,0.00,,,0.10,Wunderground v.1.15,2013-02-23 04:18:00,
2013-02-22 23:19:00,29.7,28.7,30.09,East,82,6.0,7.0,96,0.00,,,0.10,Wunderground v.1.15,2013-02-23 04:19:00,
2013-02-22 23:20:00,29.7,28.7,30.09,East,84,7.0,8.0,96,0.00,,,0.10,Wunderground v.1.15,2013-02-23 04:20:00,
2013-02-22 23:23:00,29.7,28.7,30.09,ESE,113,3.0,8.0,96,0.00,,,0.10,Wunderground v.1.15,2013-02-23 04:23:00,
2013-02-22 23:24:00,29.7,28.7,30.09,East,90,2.0,8.0,96,0.00,,,0.10,Wunderground v.1.15,2013-02-23 04:24:00,
2013-02-22 23:25:00,29.7,28.7,30.09,SSE,148,1.0,8.0,96,0.00,,,0.10,Wunderground v.1.15,2013-02-23 04:25:00,
2013-02-22 23:29:00,29.8,28.8,30.08,ESE,103,1.0,8.0,96,0.00,,,0.10,Wunderground v.1.15,2013-02-23 04:29:00,
2013-02-22 23:30:00,29.8,28.8,30.08,SE,139,4.0,4.0,96,0.00,,,0.10,Wunderground v.1.15,2013-02-23 04:30:00,
2013-02-22 23:34:00,29.8,28.8,30.08,ESE,119,1.0,5.0,96,0.00,,,0.10,Wunderground v.1.15,2013-02-23 04:34:00,
2013-02-22 23:35:00,29.9,28.9,30.08,ESE,113,3.0,5.0,96,0.00,,,0.10,Wunderground v.1.15,2013-02-23 04:35:00,
2013-02-22 23:39:00,29.9,28.9,30.08,SSE,151,1.0,5.0,96,0.00,,,0.10,Wunderground v.1.15,2013-02-23 04:39:00,
2013-02-22 23:40:00,29.9,28.9,30.08,South,173,3.0,4.0,96,0.00,,,0.10,Wunderground v.1.15,2013-02-23 04:40:00,
2013-02-22 23:44:00,30.0,29.0,30.07,SSE,158,2.0,6.0,96,0.00,,,0.10,Wunderground v.1.15,2013-02-23 04:44:00,
2013-02-22 23:45:00,30.0,29.0,30.07,SSE,157,2.0,6.0,96,0.00,,,0.10,Wunderground v.1.15,2013-02-23 04:45:00,
2013-02-22 23:46:00,30.0,29.0,30.08,South,171,3.0,7.0,96,0.00,,,0.10,Wunderground v.1.15,2013-02-23 04:46:00,
2013-02-22 23:50:00,29.9,28.9,30.08,South,178,5.0,5.0,96,0.00,,,0.10,Wunderground v.1.15,2013-02-23 04:50:00,
2013-02-22 23:51:00,29.9,28.6,30.08,SE,127,4.0,5.0,95,0.00,,,0.10,Wunderground v.1.15,2013-02-23 04:51:00,
2013-02-22 23:52:00,29.8,28.5,30.08,SSE,153,4.0,5.0,95,0.00,,,0.10,Wunderground v.1.15,2013-02-23 04:52:00,
2013-02-22 23:55:00,29.7,28.4,30.08,ESE,111,4.0,7.0,95,0.00,,,0.10,Wunderground v.1.15,2013-02-23 04:55:00,
2013-02-22 23:56:00,29.7,28.4,30.08,SE,136,0.0,7.0,95,0.00,,,0.10,Wunderground v.1.15,2013-02-23 04:56:00,
2013-02-22 23:57:00,29.7,28.4,30.08,South,174,2.0,7.0,95,0.00,,,0.10,Wunderground v.1.15,2013-02-23 04:57:00,